Observation data for Odell on 03/09/2018      Previous  Date  Next       Current Mesonet Observations  Soil Data  Daily Summary Page  Observations in Plain Language
KOD1 090600Z 17011KT 12/M02 A2989 RMK A01 T01161018  RH  039%=      5-min Rain = 0
KOD1 090601Z 16012KT 12/M02 A2989 RMK A01 T01161018  RH  039%=      5-min Rain = 0
KOD1 090602Z 17013KT 12/M02 A2989 RMK A01 T01161019  RH  039%=      5-min Rain = 0
KOD1 090603Z 17012KT 12/M02 A2989 RMK A01 T01161019  RH  039%=      5-min Rain = 0
KOD1 090604Z 17012KT 12/M02 A2989 RMK A01 T01161018  RH  039%=      5-min Rain = 0
KOD1 090605Z 17013KT 12/M02 A2989 RMK A01 T01161018  RH  039%=      5-min Rain = 0
KOD1 090606Z 17013KT 12/M02 A2989 RMK A01 T01161018  RH  039%=      5-min Rain = 0
KOD1 090607Z 17013KT 12/M02 A2989 RMK A01 T01161018  RH  039%=      5-min Rain = 0
KOD1 090608Z 17012KT 12/M02 A2989 RMK A01 T01161018  RH  039%=      5-min Rain = 0
KOD1 090609Z 16012KT 12/M02 A2989 RMK A01 T01151018  RH  040%=      5-min Rain = 0
KOD1 090610Z 17013KT 12/M02 A2989 RMK A01 T01151018  RH  040%=      5-min Rain = 0
KOD1 090616Z 16012KT 11/M02 A2989 RMK A01 T01131017  RH  040%=      5-min Rain = 0
KOD1 090617Z 16012KT 11/M02 A2988 RMK A01 T01121017  RH  040%=      5-min Rain = 0
KOD1 090618Z 17012KT 11/M02 A2988 RMK A01 T01121017  RH  040%=      5-min Rain = 0
KOD1 090619Z 17012KT 11/M02 A2988 RMK A01 T01121017  RH  041%=      5-min Rain = 0
KOD1 090620Z 17012KT 11/M02 A2988 RMK A01 T01121017  RH  041%=      5-min Rain = 0
KOD1 090621Z 17011KT 11/M02 A2988 RMK A01 T01111017  RH  041%=      5-min Rain = 0
KOD1 090622Z 17012KT 11/M02 A2988 RMK A01 T01111018  RH  041%=      5-min Rain = 0
KOD1 090623Z 17013KT 11/M02 A2988 RMK A01 T01111018  RH  040%=      5-min Rain = 0
KOD1 090624Z 17014KT 11/M02 A2988 RMK A01 T01121020  RH  040%=      5-min Rain = 0
KOD1 090625Z 17013KT 11/M02 A2988 RMK A01 T01131020  RH  040%=      5-min Rain = 0
KOD1 090626Z 17013KT 11/M02 A2988 RMK A01 T01121020  RH  040%=      5-min Rain = 0
KOD1 090627Z 17014KT 11/M02 A2988 RMK A01 T01131021  RH  039%=      5-min Rain = 0
KOD1 090628Z 17013KT 11/M02 A2988 RMK A01 T01131021  RH  039%=      5-min Rain = 0
KOD1 090629Z 17013KT 11/M02 A2988 RMK A01 T01121021  RH  040%=      5-min Rain = 0
KOD1 090630Z 17014KT 11/M02 A2988 RMK A01 T01121021  RH  039%=      5-min Rain = 0
KOD1 090631Z 17014KT 11/M02 A2988 RMK A01 T01121022  RH  039%=      5-min Rain = 0
KOD1 090632Z 17014KT 11/M02 A2988 RMK A01 T01131023  RH  039%=      5-min Rain = 0
KOD1 090633Z 17014KT 11/M02 A2988 RMK A01 T01131024  RH  038%=      5-min Rain = 0
KOD1 090634Z 17014KT 11/M02 A2988 RMK A01 T01131023  RH  038%=      5-min Rain = 0
KOD1 090635Z 17014KT 11/M02 A2988 RMK A01 T01141024  RH  038%=      5-min Rain = 0
KOD1 090636Z 16013KT 11/M02 A2988 RMK A01 T01141024  RH  038%=      5-min Rain = 0
KOD1 090637Z 17014KT 11/M02 A2988 RMK A01 T01141024  RH  038%=      5-min Rain = 0
KOD1 090638Z 17014KT 11/M03 A2988 RMK A01 T01141025  RH  038%=      5-min Rain = 0
KOD1 090639Z 17013KT 11/M03 A2988 RMK A01 T01141025  RH  038%=      5-min Rain = 0
KOD1 090640Z 17013KT 11/M03 A2988 RMK A01 T01141025  RH  038%=      5-min Rain = 0
KOD1 090641Z 17013KT 11/M03 A2988 RMK A01 T01141025  RH  038%=      5-min Rain = 0
KOD1 090642Z 17014KT 11/M03 A2988 RMK A01 T01131025  RH  038%=      5-min Rain = 0
KOD1 090643Z 17014KT 11/M03 A2987 RMK A01 T01141026  RH  038%=      5-min Rain = 0
KOD1 090644Z 17013KT 11/M03 A2987 RMK A01 T01141027  RH  037%=      5-min Rain = 0
KOD1 090645Z 17012KT 11/M03 A2987 RMK A01 T01131026  RH  038%=      5-min Rain = 0
KOD1 090646Z 17014KT 11/M03 A2987 RMK A01 T01131027  RH  037%=      5-min Rain = 0
KOD1 090647Z 17013KT 11/M03 A2987 RMK A01 T01141027  RH  037%=      5-min Rain = 0
KOD1 090648Z 17013KT 11/M03 A2987 RMK A01 T01141028  RH  037%=      5-min Rain = 0
KOD1 090649Z 17012KT 11/M03 A2987 RMK A01 T01141027  RH  037%=      5-min Rain = 0
KOD1 090650Z 17012KT 11/M03 A2988 RMK A01 T01131027  RH  038%=      5-min Rain = 0
KOD1 090651Z 16012KT 11/M03 A2988 RMK A01 T01121026  RH  038%=      5-min Rain = 0
KOD1 090652Z 16014KT 11/M03 A2987 RMK A01 T01121027  RH  038%=      5-min Rain = 0
KOD1 090653Z 16013KT 11/M03 A2987 RMK A01 T01121026  RH  038%=      5-min Rain = 0
KOD1 090654Z 16013KT 11/M03 A2987 RMK A01 T01111026  RH  038%=      5-min Rain = 0
KOD1 090655Z 16013KT 11/M03 A2987 RMK A01 T01111025  RH  038%=      5-min Rain = 0
KOD1 090656Z 16012KT 11/M03 A2987 RMK A01 T01101025  RH  039%=      5-min Rain = 0
KOD1 090657Z 16012KT 11/M03 A2987 RMK A01 T01101025  RH  039%=      5-min Rain = 0
KOD1 090658Z 16013KT 11/M03 A2987 RMK A01 T01091025  RH  039%=      5-min Rain = 0
KOD1 090659Z 16012KT 11/M03 A2987 RMK A01 T01091025  RH  039%=      5-min Rain = 0
KOD1 090700Z 16013KT 11/M03 A2987 RMK A01 T01091026  RH  039%=      5-min Rain = 0
KOD1 090701Z 17013KT 11/M03 A2987 RMK A01 T01091028  RH  038%=      5-min Rain = 0
KOD1 090702Z 17014KT 11/M03 A2987 RMK A01 T01101030  RH  037%=      5-min Rain = 0
KOD1 090703Z 17013KT 11/M03 A2987 RMK A01 T01111030  RH  037%=      5-min Rain = 0
KOD1 090704Z 17013KT 11/M03 A2987 RMK A01 T01111030  RH  037%=      5-min Rain = 0
KOD1 090705Z 17014KT 11/M03 A2987 RMK A01 T01111031  RH  037%=      5-min Rain = 0
KOD1 090706Z 17012KT 11/M03 A2987 RMK A01 T01111030  RH  037%=      5-min Rain = 0
KOD1 090707Z 17013KT 11/M03 A2987 RMK A01 T01111031  RH  037%=      5-min Rain = 0
KOD1 090708Z 17013KT 11/M03 A2987 RMK A01 T01111031  RH  037%=      5-min Rain = 0
KOD1 090709Z 17012KT 11/M03 A2987 RMK A01 T01101030  RH  037%=      5-min Rain = 0
KOD1 090710Z 17013KT 11/M03 A2987 RMK A01 T01101031  RH  037%=      5-min Rain = 0
KOD1 090711Z 17013KT 11/M03 A2987 RMK A01 T01101032  RH  037%=      5-min Rain = 0
KOD1 090712Z 17012KT 11/M03 A2987 RMK A01 T01101031  RH  037%=      5-min Rain = 0
KOD1 090713Z 17012KT 11/M03 A2987 RMK A01 T01101031  RH  037%=      5-min Rain = 0
KOD1 090714Z 17012KT 11/M03 A2987 RMK A01 T01091031  RH  037%=      5-min Rain = 0
KOD1 090715Z 17013KT 11/M03 A2987 RMK A01 T01091032  RH  037%=      5-min Rain = 0
KOD1 090716Z 17013KT 11/M03 A2987 RMK A01 T01091033  RH  037%=      5-min Rain = 0
KOD1 090717Z 17013KT 11/M03 A2987 RMK A01 T01101034  RH  036%=      5-min Rain = 0
KOD1 090718Z 17013KT 11/M03 A2987 RMK A01 T01101034  RH  036%=      5-min Rain = 0
KOD1 090719Z 17013KT 11/M04 A2987 RMK A01 T01101035  RH  036%=      5-min Rain = 0
KOD1 090720Z 17013KT 11/M04 A2987 RMK A01 T01111036  RH  036%=      5-min Rain = 0
KOD1 090721Z 17013KT 11/M04 A2987 RMK A01 T01111036  RH  036%=      5-min Rain = 0
KOD1 090722Z 17014KT 11/M04 A2987 RMK A01 T01111037  RH  035%=      5-min Rain = 0
KOD1 090723Z 17013KT 11/M04 A2987 RMK A01 T01111037  RH  035%=      5-min Rain = 0
KOD1 090724Z 17013KT 11/M04 A2987 RMK A01 T01111037  RH  035%=      5-min Rain = 0
KOD1 090725Z 17013KT 11/M04 A2987 RMK A01 T01111036  RH  036%=      5-min Rain = 0
KOD1 090726Z 17013KT 11/M04 A2987 RMK A01 T01111037  RH  035%=      5-min Rain = 0
KOD1 090727Z 17013KT 11/M04 A2987 RMK A01 T01111037  RH  035%=      5-min Rain = 0
KOD1 090728Z 17012KT 11/M04 A2987 RMK A01 T01111037  RH  035%=      5-min Rain = 0
KOD1 090729Z 17014KT 11/M04 A2987 RMK A01 T01101037  RH  035%=      5-min Rain = 0
KOD1 090730Z 17012KT 11/M04 A2987 RMK A01 T01111037  RH  035%=      5-min Rain = 0
KOD1 090731Z 17013KT 11/M04 A2987 RMK A01 T01111037  RH  035%=      5-min Rain = 0
KOD1 090732Z 17011KT 11/M04 A2987 RMK A01 T01101036  RH  036%=      5-min Rain = 0
KOD1 090733Z 17014KT 11/M04 A2987 RMK A01 T01101038  RH  035%=      5-min Rain = 0
KOD1 090734Z 17013KT 11/M04 A2987 RMK A01 T01111038  RH  035%=      5-min Rain = 0
KOD1 090735Z 17013KT 11/M04 A2987 RMK A01 T01111038  RH  035%=      5-min Rain = 0
KOD1 090736Z 17012KT 11/M04 A2987 RMK A01 T01111038  RH  035%=      5-min Rain = 0
KOD1 090737Z 17013KT 11/M04 A2987 RMK A01 T01101037  RH  035%=      5-min Rain = 0
KOD1 090738Z 17012KT 11/M04 A2987 RMK A01 T01101037  RH  035%=      5-min Rain = 0
KOD1 090739Z 17013KT 11/M04 A2987 RMK A01 T01101038  RH  035%=      5-min Rain = 0
KOD1 090740Z 17013KT 11/M04 A2987 RMK A01 T01111038  RH  035%=      5-min Rain = 0
KOD1 090741Z 17013KT 11/M04 A2986 RMK A01 T01111038  RH  035%=      5-min Rain = 0
KOD1 090742Z 17012KT 11/M04 A2987 RMK A01 T01111038  RH  035%=      5-min Rain = 0
KOD1 090743Z 17011KT 11/M04 A2986 RMK A01 T01101038  RH  035%=      5-min Rain = 0
KOD1 090744Z 17012KT 11/M04 A2986 RMK A01 T01101038  RH  035%=      5-min Rain = 0
KOD1 090745Z 17012KT 11/M04 A2986 RMK A01 T01101038  RH  035%=      5-min Rain = 0
KOD1 090746Z 18012KT 11/M04 A2987 RMK A01 T01091037  RH  036%=      5-min Rain = 0
KOD1 090747Z 17012KT 11/M04 A2986 RMK A01 T01091037  RH  036%=      5-min Rain = 0
KOD1 090748Z 17013KT 11/M04 A2986 RMK A01 T01091038  RH  035%=      5-min Rain = 0
KOD1 090749Z 17012KT 11/M04 A2986 RMK A01 T01101038  RH  035%=      5-min Rain = 0
KOD1 090750Z 17012KT 11/M04 A2986 RMK A01 T01101038  RH  035%=      5-min Rain = 0
KOD1 090751Z 17013KT 11/M04 A2986 RMK A01 T01091038  RH  035%=      5-min Rain = 0
KOD1 090752Z 17013KT 11/M04 A2986 RMK A01 T01091038  RH  035%=      5-min Rain = 0
KOD1 090753Z 17013KT 11/M04 A2986 RMK A01 T01101039  RH  035%=      5-min Rain = 0
KOD1 090754Z 18013KT 11/M04 A2986 RMK A01 T01101039  RH  035%=      5-min Rain = 0
KOD1 090755Z 17013KT 11/M04 A2986 RMK A01 T01101039  RH  035%=      5-min Rain = 0
KOD1 090756Z 17013KT 11/M04 A2986 RMK A01 T01101039  RH  035%=      5-min Rain = 0
KOD1 090757Z 18013KT 11/M04 A2986 RMK A01 T01101039  RH  035%=      5-min Rain = 0
KOD1 090758Z 17013KT 11/M04 A2986 RMK A01 T01101040  RH  035%=      5-min Rain = 0
KOD1 090759Z 17012KT 11/M04 A2986 RMK A01 T01101040  RH  035%=      5-min Rain = 0
KOD1 090800Z 17012KT 11/M04 A2986 RMK A01 T01101040  RH  035%=      5-min Rain = 0
KOD1 090801Z 17013KT 11/M04 A2986 RMK A01 T01101040  RH  035%=      5-min Rain = 0
KOD1 090802Z 18013KT 11/M04 A2986 RMK A01 T01101039  RH  035%=      5-min Rain = 0
KOD1 090803Z 18012KT 11/M04 A2986 RMK A01 T01101039  RH  035%=      5-min Rain = 0
KOD1 090804Z 18012KT 11/M04 A2986 RMK A01 T01091039  RH  035%=      5-min Rain = 0
KOD1 090805Z 17012KT 11/M04 A2986 RMK A01 T01091039  RH  035%=      5-min Rain = 0
KOD1 090806Z 17012KT 11/M04 A2986 RMK A01 T01091039  RH  035%=      5-min Rain = 0
KOD1 090807Z 17012KT 11/M04 A2986 RMK A01 T01091039  RH  035%=      5-min Rain = 0
KOD1 090808Z 18011KT 11/M04 A2986 RMK A01 T01091039  RH  035%=      5-min Rain = 0
KOD1 090809Z 17011KT 11/M04 A2986 RMK A01 T01091040  RH  035%=      5-min Rain = 0
KOD1 090810Z 17011KT 11/M04 A2986 RMK A01 T01091039  RH  035%=      5-min Rain = 0
KOD1 090811Z 17011KT 11/M04 A2986 RMK A01 T01081039  RH  035%=      5-min Rain = 0
KOD1 090812Z 17010KT 11/M04 A2986 RMK A01 T01081038  RH  036%=      5-min Rain = 0
KOD1 090813Z 17011KT 11/M04 A2986 RMK A01 T01071039  RH  036%=      5-min Rain = 0
KOD1 090814Z 17012KT 11/M04 A2986 RMK A01 T01071039  RH  036%=      5-min Rain = 0
KOD1 090815Z 17011KT 11/M04 A2986 RMK A01 T01071040  RH  035%=      5-min Rain = 0
KOD1 090816Z 17012KT 11/M04 A2986 RMK A01 T01081040  RH  035%=      5-min Rain = 0
KOD1 090817Z 17012KT 11/M04 A2986 RMK A01 T01091040  RH  035%=      5-min Rain = 0
KOD1 090818Z 17011KT 11/M04 A2986 RMK A01 T01081040  RH  035%=      5-min Rain = 0
KOD1 090819Z 17011KT 11/M04 A2986 RMK A01 T01081039  RH  035%=      5-min Rain = 0
KOD1 090820Z 17012KT 11/M04 A2986 RMK A01 T01071039  RH  036%=      5-min Rain = 0
KOD1 090821Z 17012KT 11/M04 A2986 RMK A01 T01071040  RH  035%=      5-min Rain = 0
KOD1 090822Z 17011KT 11/M04 A2986 RMK A01 T01081040  RH  035%=      5-min Rain = 0
KOD1 090823Z 17011KT 11/M04 A2985 RMK A01 T01081040  RH  035%=      5-min Rain = 0
KOD1 090824Z 17011KT 11/M04 A2985 RMK A01 T01081040  RH  035%=      5-min Rain = 0
KOD1 090825Z 17011KT 11/M04 A2985 RMK A01 T01071039  RH  036%=      5-min Rain = 0
KOD1 090826Z 17012KT 11/M04 A2985 RMK A01 T01071040  RH  036%=      5-min Rain = 0
KOD1 090827Z 17011KT 11/M04 A2985 RMK A01 T01071040  RH  035%=      5-min Rain = 0
KOD1 090828Z 17009KT 11/M04 A2985 RMK A01 T01071039  RH  036%=      5-min Rain = 0
KOD1 090829Z 17009KT 11/M04 A2986 RMK A01 T01061038  RH  036%=      5-min Rain = 0
KOD1 090830Z 17010KT 11/M04 A2986 RMK A01 T01051038  RH  036%=      5-min Rain = 0
KOD1 090831Z 17009KT 11/M04 A2986 RMK A01 T01051038  RH  036%=      5-min Rain = 0
KOD1 090832Z 17009KT 10/M04 A2986 RMK A01 T01041038  RH  037%=      5-min Rain = 0
KOD1 090833Z 17009KT 11/M04 A2986 RMK A01 T01051038  RH  036%=      5-min Rain = 0
KOD1 090834Z 17009KT 11/M04 A2986 RMK A01 T01051038  RH  036%=      5-min Rain = 0
KOD1 090835Z 17008KT 10/M04 A2986 RMK A01 T01041038  RH  037%=      5-min Rain = 0
KOD1 090836Z 17008KT 10/M04 A2986 RMK A01 T01041038  RH  037%=      5-min Rain = 0
KOD1 090837Z 17008KT 10/M04 A2986 RMK A01 T01031037  RH  037%=      5-min Rain = 0
KOD1 090838Z 17008KT 10/M04 A2986 RMK A01 T01031037  RH  037%=      5-min Rain = 0
KOD1 090839Z 17008KT 10/M04 A2986 RMK A01 T01031037  RH  037%=      5-min Rain = 0
KOD1 090840Z 16008KT 10/M04 A2986 RMK A01 T01021036  RH  038%=      5-min Rain = 0
KOD1 090841Z 16007KT 10/M04 A2986 RMK A01 T01011036  RH  038%=      5-min Rain = 0
KOD1 090842Z 16008KT 10/M04 A2986 RMK A01 T01011036  RH  038%=      5-min Rain = 0
KOD1 090843Z 16008KT 10/M04 A2986 RMK A01 T01011036  RH  038%=      5-min Rain = 0
KOD1 090844Z 16008KT 10/M04 A2986 RMK A01 T01001036  RH  038%=      5-min Rain = 0
KOD1 090845Z 16007KT 10/M04 A2986 RMK A01 T01011036  RH  038%=      5-min Rain = 0
KOD1 090846Z 16007KT 10/M04 A2986 RMK A01 T01011036  RH  038%=      5-min Rain = 0
KOD1 090847Z 16007KT 10/M04 A2986 RMK A01 T01001035  RH  039%=      5-min Rain = 0
KOD1 090848Z 15007KT 10/M03 A2986 RMK A01 T00991034  RH  039%=      5-min Rain = 0
KOD1 090849Z 16008KT 10/M03 A2985 RMK A01 T00991034  RH  039%=      5-min Rain = 0
KOD1 090850Z 16007KT 10/M03 A2985 RMK A01 T00981034  RH  039%=      5-min Rain = 0
KOD1 090851Z 16007KT 10/M03 A2985 RMK A01 T00981034  RH  039%=      5-min Rain = 0
KOD1 090852Z 16007KT 10/M03 A2985 RMK A01 T00981034  RH  039%=      5-min Rain = 0
KOD1 090853Z 16007KT 10/M03 A2985 RMK A01 T00981034  RH  039%=      5-min Rain = 0
KOD1 090854Z 15007KT 10/M03 A2985 RMK A01 T00971034  RH  040%=      5-min Rain = 0
KOD1 090855Z 16008KT 10/M03 A2985 RMK A01 T00971034  RH  040%=      5-min Rain = 0
KOD1 090856Z 15007KT 10/M03 A2985 RMK A01 T00971034  RH  040%=      5-min Rain = 0
KOD1 090857Z 15007KT 10/M03 A2985 RMK A01 T00971034  RH  039%=      5-min Rain = 0
KOD1 090858Z 16008KT 10/M03 A2985 RMK A01 T00971034  RH  040%=      5-min Rain = 0
KOD1 090859Z 15007KT 10/M03 A2985 RMK A01 T00971034  RH  040%=      5-min Rain = 0
KOD1 090900Z 16007KT 10/M03 A2985 RMK A01 T00971034  RH  040%=      5-min Rain = 0
KOD1 090901Z 15007KT 10/M03 A2985 RMK A01 T00961033  RH  040%=      5-min Rain = 0
KOD1 090902Z 15007KT 10/M03 A2985 RMK A01 T00951033  RH  040%=      5-min Rain = 0
KOD1 090903Z 15007KT 10/M03 A2985 RMK A01 T00951033  RH  041%=      5-min Rain = 0
KOD1 090904Z 15007KT 10/M03 A2985 RMK A01 T00951033  RH  040%=      5-min Rain = 0
KOD1 090905Z 15007KT 10/M03 A2985 RMK A01 T00951033  RH  040%=      5-min Rain = 0
KOD1 090906Z 16007KT 09/M03 A2985 RMK A01 T00941033  RH  041%=      5-min Rain = 0
KOD1 090907Z 15007KT 09/M03 A2985 RMK A01 T00941032  RH  041%=      5-min Rain = 0
KOD1 090908Z 16008KT 09/M03 A2985 RMK A01 T00941033  RH  041%=      5-min Rain = 0
KOD1 090909Z 15008KT 10/M03 A2985 RMK A01 T00951033  RH  041%=      5-min Rain = 0
KOD1 090910Z 15007KT 09/M03 A2985 RMK A01 T00941033  RH  041%=      5-min Rain = 0
KOD1 090911Z 15007KT 09/M03 A2985 RMK A01 T00941032  RH  041%=      5-min Rain = 0
KOD1 090912Z 15006KT 09/M03 A2985 RMK A01 T00931032  RH  041%=      5-min Rain = 0
KOD1 090913Z 15008KT 09/M03 A2985 RMK A01 T00931032  RH  041%=      5-min Rain = 0
KOD1 090914Z 15007KT 09/M03 A2985 RMK A01 T00921032  RH  041%=      5-min Rain = 0
KOD1 090915Z 15007KT 09/M03 A2985 RMK A01 T00911032  RH  042%=      5-min Rain = 0
KOD1 090916Z 15008KT 09/M03 A2985 RMK A01 T00911031  RH  042%=      5-min Rain = 0
KOD1 090917Z 15008KT 09/M03 A2985 RMK A01 T00911031  RH  042%=      5-min Rain = 0
KOD1 090918Z 15008KT 09/M03 A2985 RMK A01 T00901030  RH  042%=      5-min Rain = 0
KOD1 090919Z 15007KT 09/M03 A2985 RMK A01 T00901030  RH  043%=      5-min Rain = 0
KOD1 090920Z 15008KT 09/M03 A2985 RMK A01 T00901030  RH  043%=      5-min Rain = 0
KOD1 090921Z 15008KT 09/M03 A2984 RMK A01 T00901030  RH  043%=      5-min Rain = 0
KOD1 090922Z 15008KT 09/M03 A2984 RMK A01 T00891030  RH  043%=      5-min Rain = 0
KOD1 090923Z 15009KT 09/M03 A2984 RMK A01 T00891030  RH  043%=      5-min Rain = 0
KOD1 090924Z 15009KT 09/M03 A2984 RMK A01 T00881029  RH  043%=      5-min Rain = 0
KOD1 090925Z 15008KT 09/M03 A2984 RMK A01 T00881029  RH  044%=      5-min Rain = 0
KOD1 090926Z 15008KT 09/M03 A2984 RMK A01 T00881029  RH  044%=      5-min Rain = 0
KOD1 090927Z 15009KT 09/M03 A2984 RMK A01 T00891029  RH  044%=      5-min Rain = 0
KOD1 090928Z 15008KT 09/M03 A2984 RMK A01 T00891028  RH  044%=      5-min Rain = 0
KOD1 090929Z 15008KT 09/M03 A2984 RMK A01 T00881028  RH  044%=      5-min Rain = 0
KOD1 090930Z 15008KT 09/M03 A2984 RMK A01 T00881028  RH  044%=      5-min Rain = 0
KOD1 090931Z 15009KT 09/M03 A2984 RMK A01 T00881028  RH  044%=      5-min Rain = 0
KOD1 090932Z 15010KT 09/M03 A2984 RMK A01 T00881028  RH  044%=      5-min Rain = 0
KOD1 090933Z 15009KT 09/M03 A2984 RMK A01 T00881028  RH  044%=      5-min Rain = 0
KOD1 090934Z 15008KT 09/M03 A2984 RMK A01 T00881028  RH  044%=      5-min Rain = 0
KOD1 090935Z 15009KT 09/M03 A2984 RMK A01 T00881028  RH  044%=      5-min Rain = 0
KOD1 090936Z 15009KT 09/M03 A2984 RMK A01 T00881028  RH  044%=      5-min Rain = 0
KOD1 090937Z 15009KT 09/M03 A2984 RMK A01 T00871028  RH  044%=      5-min Rain = 0
KOD1 090938Z 15009KT 09/M03 A2984 RMK A01 T00881028  RH  044%=      5-min Rain = 0
KOD1 090939Z 15008KT 09/M03 A2984 RMK A01 T00881028  RH  044%=      5-min Rain = 0
KOD1 090940Z 15009KT 09/M03 A2984 RMK A01 T00881028  RH  044%=      5-min Rain = 0
KOD1 090941Z 15008KT 09/M03 A2984 RMK A01 T00881028  RH  044%=      5-min Rain = 0
KOD1 090942Z 15009KT 09/M03 A2983 RMK A01 T00881028  RH  044%=      5-min Rain = 0
KOD1 090943Z 15008KT 09/M03 A2983 RMK A01 T00881028  RH  044%=      5-min Rain = 0
KOD1 090944Z 15008KT 09/M03 A2983 RMK A01 T00871028  RH  044%=      5-min Rain = 0
KOD1 090945Z 15008KT 09/M03 A2983 RMK A01 T00871028  RH  044%=      5-min Rain = 0
KOD1 090946Z 15008KT 09/M03 A2983 RMK A01 T00871027  RH  045%=      5-min Rain = 0
KOD1 090947Z 15008KT 09/M03 A2983 RMK A01 T00861028  RH  045%=      5-min Rain = 0
KOD1 090948Z 15008KT 09/M03 A2983 RMK A01 T00861027  RH  045%=      5-min Rain = 0
KOD1 090949Z 15008KT 09/M03 A2983 RMK A01 T00851027  RH  045%=      5-min Rain = 0
KOD1 090950Z 15009KT 09/M03 A2983 RMK A01 T00851027  RH  045%=      5-min Rain = 0
KOD1 090951Z 15008KT 09/M03 A2983 RMK A01 T00851027  RH  045%=      5-min Rain = 0
KOD1 090952Z 15008KT 08/M03 A2983 RMK A01 T00841027  RH  046%=      5-min Rain = 0
KOD1 090953Z 15008KT 08/M03 A2983 RMK A01 T00831026  RH  046%=      5-min Rain = 0
KOD1 090954Z 16008KT 08/M03 A2983 RMK A01 T00831027  RH  046%=      5-min Rain = 0
KOD1 090955Z 15008KT 08/M03 A2983 RMK A01 T00831026  RH  046%=      5-min Rain = 0
KOD1 090956Z 15008KT 08/M03 A2983 RMK A01 T00821026  RH  046%=      5-min Rain = 0
KOD1 090957Z 16008KT 08/M03 A2983 RMK A01 T00821026  RH  046%=      5-min Rain = 0
KOD1 090958Z 15007KT 08/M03 A2983 RMK A01 T00821026  RH  046%=      5-min Rain = 0
KOD1 090959Z 15008KT 08/M03 A2983 RMK A01 T00821026  RH  046%=      5-min Rain = 0
KOD1 091000Z 15007KT 08/M03 A2983 RMK A01 T00821026  RH  047%=      5-min Rain = 0
KOD1 091001Z 15008KT 08/M03 A2983 RMK A01 T00811026  RH  047%=      5-min Rain = 0
KOD1 091002Z 15008KT 08/M03 A2983 RMK A01 T00821026  RH  047%=      5-min Rain = 0
KOD1 091003Z 15008KT 08/M03 A2983 RMK A01 T00821026  RH  046%=      5-min Rain = 0
KOD1 091004Z 15007KT 08/M03 A2984 RMK A01 T00821026  RH  046%=      5-min Rain = 0
KOD1 091005Z 15007KT 08/M03 A2984 RMK A01 T00821026  RH  046%=      5-min Rain = 0
KOD1 091006Z 14007KT 08/M03 A2984 RMK A01 T00831026  RH  046%=      5-min Rain = 0
KOD1 091007Z 15006KT 08/M03 A2984 RMK A01 T00831026  RH  046%=      5-min Rain = 0
KOD1 091008Z 14006KT 08/M03 A2984 RMK A01 T00831026  RH  046%=      5-min Rain = 0
KOD1 091009Z 14006KT 08/M03 A2984 RMK A01 T00841026  RH  046%=      5-min Rain = 0
KOD1 091010Z 15006KT 08/M03 A2984 RMK A01 T00841026  RH  046%=      5-min Rain = 0
KOD1 091011Z 14006KT 08/M03 A2984 RMK A01 T00841026  RH  046%=      5-min Rain = 0
KOD1 091012Z 14006KT 08/M03 A2984 RMK A01 T00831026  RH  046%=      5-min Rain = 0
KOD1 091013Z 14006KT 08/M03 A2984 RMK A01 T00831026  RH  046%=      5-min Rain = 0
KOD1 091014Z 14006KT 08/M03 A2984 RMK A01 T00831026  RH  046%=      5-min Rain = 0
KOD1 091015Z 14006KT 08/M03 A2984 RMK A01 T00831026  RH  046%=      5-min Rain = 0
KOD1 091016Z 14006KT 08/M03 A2984 RMK A01 T00831026  RH  046%=      5-min Rain = 0
KOD1 091017Z 14006KT 08/M03 A2985 RMK A01 T00821026  RH  046%=      5-min Rain = 0
KOD1 091018Z 14006KT 08/M03 A2985 RMK A01 T00821026  RH  047%=      5-min Rain = 0
KOD1 091019Z 14006KT 08/M03 A2984 RMK A01 T00821026  RH  047%=      5-min Rain = 0
KOD1 091020Z 14007KT 08/M03 A2984 RMK A01 T00811025  RH  047%=      5-min Rain = 0
KOD1 091021Z 14006KT 08/M03 A2984 RMK A01 T00811025  RH  047%=      5-min Rain = 0
KOD1 091022Z 14006KT 08/M03 A2985 RMK A01 T00811025  RH  047%=      5-min Rain = 0
KOD1 091023Z 15006KT 08/M03 A2985 RMK A01 T00801025  RH  048%=      5-min Rain = 0
KOD1 091024Z 14006KT 08/M03 A2984 RMK A01 T00791025  RH  048%=      5-min Rain = 0
KOD1 091025Z 14006KT 08/M02 A2984 RMK A01 T00791024  RH  048%=      5-min Rain = 0
KOD1 091026Z 14006KT 08/M02 A2984 RMK A01 T00781024  RH  048%=      5-min Rain = 0
KOD1 091027Z 14006KT 08/M02 A2984 RMK A01 T00781024  RH  048%=      5-min Rain = 0
KOD1 091028Z 14007KT 08/M02 A2984 RMK A01 T00771024  RH  049%=      5-min Rain = 0
KOD1 091029Z 14007KT 08/M02 A2984 RMK A01 T00761024  RH  049%=      5-min Rain = 0
KOD1 091030Z 14007KT 08/M02 A2984 RMK A01 T00751024  RH  049%=      5-min Rain = 0
KOD1 091031Z 14008KT 08/M02 A2984 RMK A01 T00751023  RH  050%=      5-min Rain = 0
KOD1 091032Z 14008KT 08/M02 A2984 RMK A01 T00751023  RH  050%=      5-min Rain = 0
KOD1 091033Z 14008KT 07/M02 A2984 RMK A01 T00741023  RH  050%=      5-min Rain = 0
KOD1 091034Z 14008KT 07/M02 A2984 RMK A01 T00741023  RH  050%=      5-min Rain = 0
KOD1 091035Z 14008KT 07/M02 A2984 RMK A01 T00741023  RH  050%=      5-min Rain = 0
KOD1 091036Z 14007KT 07/M02 A2984 RMK A01 T00741022  RH  051%=      5-min Rain = 0
KOD1 091037Z 14008KT 07/M02 A2984 RMK A01 T00731022  RH  051%=      5-min Rain = 0
KOD1 091038Z 14008KT 07/M02 A2984 RMK A01 T00741022  RH  051%=      5-min Rain = 0
KOD1 091039Z 14008KT 07/M02 A2984 RMK A01 T00741022  RH  051%=      5-min Rain = 0
KOD1 091040Z 14007KT 07/M02 A2984 RMK A01 T00741022  RH  051%=      5-min Rain = 0
KOD1 091041Z 14007KT 07/M02 A2984 RMK A01 T00741021  RH  051%=      5-min Rain = 0
KOD1 091042Z 13007KT 07/M02 A2984 RMK A01 T00741022  RH  051%=      5-min Rain = 0
KOD1 091043Z 14008KT 07/M02 A2984 RMK A01 T00741021  RH  051%=      5-min Rain = 0
KOD1 091044Z 13007KT 07/M02 A2984 RMK A01 T00731021  RH  051%=      5-min Rain = 0
KOD1 091045Z 13008KT 07/M02 A2984 RMK A01 T00731021  RH  051%=      5-min Rain = 0
KOD1 091046Z 13008KT 07/M02 A2984 RMK A01 T00731021  RH  051%=      5-min Rain = 0
KOD1 091047Z 14008KT 07/M02 A2984 RMK A01 T00731020  RH  051%=      5-min Rain = 0
KOD1 091048Z 13007KT 07/M02 A2984 RMK A01 T00741021  RH  051%=      5-min Rain = 0
KOD1 091049Z 14007KT 07/M02 A2984 RMK A01 T00741020  RH  051%=      5-min Rain = 0
KOD1 091050Z 14008KT 07/M02 A2984 RMK A01 T00741020  RH  051%=      5-min Rain = 0
KOD1 091051Z 13007KT 07/M02 A2983 RMK A01 T00741020  RH  051%=      5-min Rain = 0
KOD1 091052Z 14008KT 07/M02 A2983 RMK A01 T00731020  RH  051%=      5-min Rain = 0
KOD1 091053Z 14008KT 07/M02 A2984 RMK A01 T00741020  RH  051%=      5-min Rain = 0
KOD1 091054Z 13008KT 07/M02 A2983 RMK A01 T00741020  RH  051%=      5-min Rain = 0
KOD1 091055Z 13008KT 07/M02 A2984 RMK A01 T00741020  RH  051%=      5-min Rain = 0
KOD1 091056Z 13008KT 07/M02 A2984 RMK A01 T00741020  RH  051%=      5-min Rain = 0
KOD1 091057Z 14008KT 07/M02 A2984 RMK A01 T00741020  RH  051%=      5-min Rain = 0
KOD1 091058Z 14008KT 07/M02 A2984 RMK A01 T00741020  RH  051%=      5-min Rain = 0
KOD1 091059Z 14008KT 07/M02 A2983 RMK A01 T00741020  RH  051%=      5-min Rain = 0
KOD1 091100Z 14008KT 08/M02 A2983 RMK A01 T00751020  RH  051%=      5-min Rain = 0
KOD1 091101Z 14008KT 08/M02 A2983 RMK A01 T00751020  RH  051%=      5-min Rain = 0
KOD1 091102Z 14008KT 08/M02 A2983 RMK A01 T00751020  RH  051%=      5-min Rain = 0
KOD1 091103Z 14007KT 08/M02 A2984 RMK A01 T00751020  RH  051%=      5-min Rain = 0
KOD1 091104Z 14007KT 08/M02 A2984 RMK A01 T00751020  RH  051%=      5-min Rain = 0
KOD1 091105Z 14007KT 08/M02 A2984 RMK A01 T00751020  RH  051%=      5-min Rain = 0
KOD1 091106Z 14007KT 07/M02 A2984 RMK A01 T00741020  RH  051%=      5-min Rain = 0
KOD1 091107Z 14008KT 07/M02 A2983 RMK A01 T00741020  RH  051%=      5-min Rain = 0
KOD1 091108Z 14007KT 07/M02 A2983 RMK A01 T00741020  RH  051%=      5-min Rain = 0
KOD1 091109Z 14007KT 07/M02 A2983 RMK A01 T00741020  RH  051%=      5-min Rain = 0
KOD1 091110Z 14007KT 07/M02 A2983 RMK A01 T00741020  RH  051%=      5-min Rain = 0
KOD1 091111Z 14007KT 07/M02 A2983 RMK A01 T00731020  RH  052%=      5-min Rain = 0
KOD1 091112Z 14006KT 07/M02 A2983 RMK A01 T00731020  RH  052%=      5-min Rain = 0
KOD1 091113Z 14006KT 07/M02 A2983 RMK A01 T00721020  RH  052%=      5-min Rain = 0
KOD1 091114Z 14007KT 07/M02 A2983 RMK A01 T00721019  RH  052%=      5-min Rain = 0
KOD1 091115Z 14007KT 07/M02 A2983 RMK A01 T00721019  RH  052%=      5-min Rain = 0
KOD1 091116Z 14007KT 07/M02 A2983 RMK A01 T00721019  RH  052%=      5-min Rain = 0
KOD1 091117Z 14007KT 07/M02 A2983 RMK A01 T00711019  RH  053%=      5-min Rain = 0
KOD1 091118Z 13008KT 07/M02 A2983 RMK A01 T00711019  RH  053%=      5-min Rain = 0
KOD1 091119Z 13008KT 07/M02 A2983 RMK A01 T00711019  RH  053%=      5-min Rain = 0
KOD1 091120Z 13007KT 07/M02 A2983 RMK A01 T00711019  RH  053%=      5-min Rain = 0
KOD1 091121Z 13008KT 07/M02 A2983 RMK A01 T00701019  RH  053%=      5-min Rain = 0
KOD1 091122Z 13008KT 07/M02 A2983 RMK A01 T00701019  RH  053%=      5-min Rain = 0
KOD1 091123Z 13007KT 07/M02 A2983 RMK A01 T00701019  RH  053%=      5-min Rain = 0
KOD1 091124Z 13007KT 07/M02 A2983 RMK A01 T00701019  RH  053%=      5-min Rain = 0
KOD1 091125Z 13007KT 07/M02 A2984 RMK A01 T00701019  RH  053%=      5-min Rain = 0
KOD1 091126Z 13007KT 07/M02 A2984 RMK A01 T00701019  RH  053%=      5-min Rain = 0
KOD1 091127Z 13008KT 07/M02 A2984 RMK A01 T00701019  RH  053%=      5-min Rain = 0
KOD1 091128Z 13008KT 07/M02 A2984 RMK A01 T00691018  RH  054%=      5-min Rain = 0
KOD1 091129Z 13008KT 07/M02 A2984 RMK A01 T00701018  RH  053%=      5-min Rain = 0
KOD1 091130Z 13008KT 07/M02 A2983 RMK A01 T00701018  RH  053%=      5-min Rain = 0
KOD1 091131Z 13009KT 07/M02 A2983 RMK A01 T00701018  RH  054%=      5-min Rain = 0
KOD1 091132Z 13009KT 07/M02 A2983 RMK A01 T00691018  RH  054%=      5-min Rain = 0
KOD1 091133Z 13009KT 07/M02 A2983 RMK A01 T00701018  RH  054%=      5-min Rain = 0
KOD1 091134Z 13009KT 07/M02 A2983 RMK A01 T00701017  RH  054%=      5-min Rain = 0
KOD1 091135Z 13009KT 07/M02 A2983 RMK A01 T00701017  RH  054%=      5-min Rain = 0
KOD1 091136Z 13009KT 07/M02 A2983 RMK A01 T00701017  RH  054%=      5-min Rain = 0
KOD1 091137Z 13009KT 07/M02 A2983 RMK A01 T00701017  RH  054%=      5-min Rain = 0
KOD1 091138Z 13008KT 07/M02 A2983 RMK A01 T00701017  RH  054%=      5-min Rain = 0
KOD1 091139Z 13009KT 07/M02 A2983 RMK A01 T00701017  RH  054%=      5-min Rain = 0
KOD1 091140Z 13009KT 07/M02 A2983 RMK A01 T00701017  RH  054%=      5-min Rain = 0
KOD1 091141Z 13009KT 07/M02 A2983 RMK A01 T00701017  RH  054%=      5-min Rain = 0
KOD1 091142Z 14009KT 07/M02 A2983 RMK A01 T00701017  RH  054%=      5-min Rain = 0
KOD1 091143Z 13009KT 07/M02 A2983 RMK A01 T00701017  RH  054%=      5-min Rain = 0
KOD1 091144Z 14008KT 07/M02 A2983 RMK A01 T00691017  RH  054%=      5-min Rain = 0
KOD1 091145Z 14009KT 07/M02 A2983 RMK A01 T00691016  RH  054%=      5-min Rain = 0
KOD1 091146Z 14009KT 07/M02 A2983 RMK A01 T00691016  RH  055%=      5-min Rain = 0
KOD1 091147Z 14009KT 07/M02 A2983 RMK A01 T00691016  RH  055%=      5-min Rain = 0
KOD1 091148Z 14009KT 07/M02 A2983 RMK A01 T00691016  RH  055%=      5-min Rain = 0
KOD1 091149Z 14009KT 07/M02 A2983 RMK A01 T00691016  RH  055%=      5-min Rain = 0
KOD1 091150Z 14009KT 07/M02 A2983 RMK A01 T00691016  RH  055%=      5-min Rain = 0
KOD1 091151Z 14009KT 07/M02 A2983 RMK A01 T00691016  RH  055%=      5-min Rain = 0
KOD1 091152Z 14009KT 07/M02 A2983 RMK A01 T00691015  RH  055%=      5-min Rain = 0
KOD1 091153Z 14008KT 07/M02 A2983 RMK A01 T00691015  RH  055%=      5-min Rain = 0
KOD1 091154Z 14008KT 07/M02 A2983 RMK A01 T00691015  RH  055%=      5-min Rain = 0
KOD1 091155Z 14008KT 07/M02 A2983 RMK A01 T00691015  RH  055%=      5-min Rain = 0
KOD1 091156Z 14008KT 07/M02 A2983 RMK A01 T00691015  RH  055%=      5-min Rain = 0
KOD1 091157Z 14009KT 07/M02 A2983 RMK A01 T00691015  RH  055%=      5-min Rain = 0
KOD1 091158Z 14008KT 07/M02 A2983 RMK A01 T00691015  RH  055%=      5-min Rain = 0
KOD1 091159Z 14008KT 07/M02 A2983 RMK A01 T00691015  RH  055%=      5-min Rain = 0
KOD1 091200Z 14008KT 07/M02 A2983 RMK A01 T00691015  RH  055%=      5-min Rain = 0
KOD1 091201Z 14007KT 07/M01 A2983 RMK A01 T00691014  RH  055%=      5-min Rain = 0
KOD1 091202Z 14008KT 07/M01 A2983 RMK A01 T00691014  RH  055%=      5-min Rain = 0
KOD1 091203Z 14007KT 07/M01 A2983 RMK A01 T00691014  RH  055%=      5-min Rain = 0
KOD1 091204Z 14008KT 07/M01 A2983 RMK A01 T00691014  RH  055%=      5-min Rain = 0
KOD1 091205Z 14008KT 07/M01 A2983 RMK A01 T00691014  RH  055%=      5-min Rain = 0
KOD1 091206Z 14007KT 07/M01 A2983 RMK A01 T00691014  RH  056%=      5-min Rain = 0
KOD1 091207Z 14008KT 07/M01 A2983 RMK A01 T00691014  RH  056%=      5-min Rain = 0
KOD1 091208Z 14008KT 07/M01 A2983 RMK A01 T00681014  RH  056%=      5-min Rain = 0
KOD1 091209Z 14008KT 07/M01 A2983 RMK A01 T00681014  RH  056%=      5-min Rain = 0
KOD1 091210Z 14008KT 07/M01 A2983 RMK A01 T00681014  RH  056%=      5-min Rain = 0
KOD1 091211Z 14009KT 07/M01 A2982 RMK A01 T00681014  RH  056%=      5-min Rain = 0
KOD1 091212Z 14009KT 07/M01 A2982 RMK A01 T00681014  RH  056%=      5-min Rain = 0
KOD1 091213Z 14009KT 07/M01 A2982 RMK A01 T00681014  RH  056%=      5-min Rain = 0
KOD1 091214Z 14009KT 07/M01 A2982 RMK A01 T00671014  RH  056%=      5-min Rain = 0
KOD1 091215Z 14009KT 07/M01 A2982 RMK A01 T00671013  RH  056%=      5-min Rain = 0
KOD1 091216Z 14009KT 07/M01 A2982 RMK A01 T00671013  RH  057%=      5-min Rain = 0
KOD1 091217Z 14009KT 07/M01 A2982 RMK A01 T00671013  RH  057%=      5-min Rain = 0
KOD1 091218Z 14009KT 07/M01 A2982 RMK A01 T00671013  RH  057%=      5-min Rain = 0
KOD1 091219Z 14009KT 07/M01 A2982 RMK A01 T00661013  RH  057%=      5-min Rain = 0
KOD1 091220Z 14009KT 07/M01 A2982 RMK A01 T00661013  RH  057%=      5-min Rain = 0
KOD1 091221Z 14009KT 07/M01 A2982 RMK A01 T00661013  RH  057%=      5-min Rain = 0
KOD1 091222Z 14008KT 07/M01 A2982 RMK A01 T00661012  RH  057%=      5-min Rain = 0
KOD1 091223Z 14008KT 07/M01 A2982 RMK A01 T00661012  RH  057%=      5-min Rain = 0
KOD1 091224Z 14009KT 07/M01 A2982 RMK A01 T00661012  RH  058%=      5-min Rain = 0
KOD1 091225Z 14009KT 07/M01 A2982 RMK A01 T00661012  RH  058%=      5-min Rain = 0
KOD1 091226Z 14009KT 07/M01 A2982 RMK A01 T00661012  RH  058%=      5-min Rain = 0
KOD1 091227Z 14008KT 07/M01 A2982 RMK A01 T00661011  RH  058%=      5-min Rain = 0
KOD1 091228Z 14008KT 07/M01 A2982 RMK A01 T00661011  RH  058%=      5-min Rain = 0
KOD1 091229Z 15008KT 07/M01 A2982 RMK A01 T00661011  RH  058%=      5-min Rain = 0
KOD1 091230Z 15009KT 07/M01 A2982 RMK A01 T00661011  RH  058%=      5-min Rain = 0
KOD1 091231Z 15008KT 07/M01 A2982 RMK A01 T00661010  RH  058%=      5-min Rain = 0
KOD1 091232Z 15009KT 07/M01 A2982 RMK A01 T00671010  RH  058%=      5-min Rain = 0
KOD1 091233Z 15009KT 07/M01 A2982 RMK A01 T00671010  RH  058%=      5-min Rain = 0
KOD1 091234Z 15009KT 07/M01 A2982 RMK A01 T00681010  RH  058%=      5-min Rain = 0
KOD1 091235Z 15010KT 07/M01 A2982 RMK A01 T00681010  RH  058%=      5-min Rain = 0
KOD1 091236Z 15010KT 07/M01 A2982 RMK A01 T00681009  RH  058%=      5-min Rain = 0
KOD1 091237Z 15010KT 07/M01 A2982 RMK A01 T00681009  RH  058%=      5-min Rain = 0
KOD1 091238Z 15010KT 07/M01 A2982 RMK A01 T00681009  RH  058%=      5-min Rain = 0
KOD1 091239Z 15010KT 07/M01 A2982 RMK A01 T00671009  RH  058%=      5-min Rain = 0
KOD1 091240Z 15010KT 07/M01 A2982 RMK A01 T00671009  RH  058%=      5-min Rain = 0
KOD1 091241Z 15010KT 07/M01 A2982 RMK A01 T00671009  RH  058%=      5-min Rain = 0
KOD1 091242Z 15010KT 07/M01 A2982 RMK A01 T00671009  RH  058%=      5-min Rain = 0
KOD1 091243Z 15010KT 07/M01 A2982 RMK A01 T00671009  RH  059%=      5-min Rain = 0
KOD1 091244Z 15010KT 07/M01 A2982 RMK A01 T00661009  RH  059%=      5-min Rain = 0
KOD1 091245Z 15010KT 07/M01 A2982 RMK A01 T00661009  RH  059%=      5-min Rain = 0
KOD1 091246Z 15010KT 07/M01 A2982 RMK A01 T00661009  RH  059%=      5-min Rain = 0
KOD1 091247Z 15010KT 07/M01 A2982 RMK A01 T00651008  RH  059%=      5-min Rain = 0
KOD1 091248Z 15011KT 07/M01 A2982 RMK A01 T00651008  RH  059%=      5-min Rain = 0
KOD1 091249Z 15010KT 07/M01 A2982 RMK A01 T00651008  RH  059%=      5-min Rain = 0
KOD1 091250Z 15010KT 07/M01 A2982 RMK A01 T00651008  RH  060%=      5-min Rain = 0
KOD1 091251Z 15009KT 07/M01 A2982 RMK A01 T00661007  RH  060%=      5-min Rain = 0
KOD1 091252Z 15010KT 07/M01 A2982 RMK A01 T00661008  RH  059%=      5-min Rain = 0
KOD1 091253Z 15009KT 07/M01 A2982 RMK A01 T00661008  RH  059%=      5-min Rain = 0
KOD1 091254Z 15009KT 07/M01 A2982 RMK A01 T00651008  RH  060%=      5-min Rain = 0
KOD1 091255Z 15009KT 07/M01 A2982 RMK A01 T00651007  RH  060%=      5-min Rain = 0
KOD1 091256Z 15009KT 07/M01 A2982 RMK A01 T00661006  RH  060%=      5-min Rain = 0
KOD1 091257Z 15009KT 07/M01 A2982 RMK A01 T00671006  RH  060%=      5-min Rain = 0
KOD1 091258Z 15010KT 07/M01 A2982 RMK A01 T00671006  RH  059%=      5-min Rain = 0
KOD1 091259Z 15009KT 07/M01 A2982 RMK A01 T00671006  RH  059%=      5-min Rain = 0
KOD1 091300Z 15009KT 07/M01 A2982 RMK A01 T00671006  RH  060%=      5-min Rain = 0
KOD1 091301Z 15009KT 07/M01 A2982 RMK A01 T00671006  RH  060%=      5-min Rain = 0
KOD1 091302Z 15009KT 07/M01 A2982 RMK A01 T00671005  RH  060%=      5-min Rain = 0
KOD1 091303Z 15009KT 07/M01 A2982 RMK A01 T00681005  RH  060%=      5-min Rain = 0
KOD1 091304Z 15009KT 07/M01 A2982 RMK A01 T00671005  RH  060%=      5-min Rain = 0
KOD1 091305Z 15010KT 07/M01 A2982 RMK A01 T00671005  RH  060%=      5-min Rain = 0
KOD1 091306Z 15009KT 07/M01 A2982 RMK A01 T00671005  RH  060%=      5-min Rain = 0
KOD1 091307Z 15010KT 07/M01 A2982 RMK A01 T00671005  RH  060%=      5-min Rain = 0
KOD1 091308Z 15010KT 07/M00 A2982 RMK A01 T00681004  RH  060%=      5-min Rain = 0
KOD1 091309Z 15009KT 07/M00 A2982 RMK A01 T00681004  RH  060%=      5-min Rain = 0
KOD1 091310Z 15010KT 07/M00 A2982 RMK A01 T00681004  RH  060%=      5-min Rain = 0
KOD1 091311Z 14010KT 07/M00 A2982 RMK A01 T00691004  RH  060%=      5-min Rain = 0
KOD1 091312Z 15009KT 07/M00 A2982 RMK A01 T00691003  RH  060%=      5-min Rain = 0
KOD1 091313Z 14009KT 07/M00 A2982 RMK A01 T00691003  RH  060%=      5-min Rain = 0
KOD1 091314Z 14008KT 07/M00 A2982 RMK A01 T00701003  RH  060%=      5-min Rain = 0
KOD1 091315Z 14008KT 07/M00 A2982 RMK A01 T00701003  RH  060%=      5-min Rain = 0
KOD1 091316Z 14008KT 07/M00 A2982 RMK A01 T00701002  RH  060%=      5-min Rain = 0
KOD1 091317Z 14009KT 07/M00 A2982 RMK A01 T00701002  RH  060%=      5-min Rain = 0
KOD1 091318Z 14008KT 07/M00 A2982 RMK A01 T00701002  RH  060%=      5-min Rain = 0
KOD1 091319Z 14008KT 07/M00 A2982 RMK A01 T00711002  RH  060%=      5-min Rain = 0
KOD1 091320Z 14008KT 07/M00 A2982 RMK A01 T00711002  RH  060%=      5-min Rain = 0
KOD1 091321Z 14008KT 07/M00 A2982 RMK A01 T00701002  RH  060%=      5-min Rain = 0
KOD1 091322Z 14008KT 07/M00 A2982 RMK A01 T00701001  RH  060%=      5-min Rain = 0
KOD1 091323Z 14008KT 07/M00 A2983 RMK A01 T00701001  RH  061%=      5-min Rain = 0
KOD1 091324Z 15008KT 07/M00 A2983 RMK A01 T00701001  RH  061%=      5-min Rain = 0
KOD1 091325Z 15008KT 07/00 A2983 RMK A01 T007100-0  RH  061%=      5-min Rain = 0
KOD1 091326Z 15008KT 07/00 A2983 RMK A01 T007100-0  RH  061%=      5-min Rain = 0
KOD1 091327Z 15009KT 07/00 A2983 RMK A01 T00720000  RH  060%=      5-min Rain = 0
KOD1 091328Z 15009KT 07/00 A2983 RMK A01 T00720000  RH  060%=      5-min Rain = 0
KOD1 091329Z 15009KT 07/00 A2983 RMK A01 T00710001  RH  061%=      5-min Rain = 0
KOD1 091330Z 15009KT 07/00 A2983 RMK A01 T00710001  RH  061%=      5-min Rain = 0
KOD1 091331Z 16010KT 07/00 A2982 RMK A01 T00710002  RH  061%=      5-min Rain = 0
KOD1 091332Z 16009KT 07/00 A2982 RMK A01 T00710002  RH  061%=      5-min Rain = 0
KOD1 091333Z 16009KT 07/00 A2982 RMK A01 T00710002  RH  062%=      5-min Rain = 0
KOD1 091334Z 16010KT 07/00 A2982 RMK A01 T00710003  RH  062%=      5-min Rain = 0
KOD1 091335Z 16010KT 07/00 A2982 RMK A01 T00720003  RH  061%=      5-min Rain = 0
KOD1 091336Z 16010KT 07/00 A2982 RMK A01 T00730004  RH  061%=      5-min Rain = 0
KOD1 091337Z 16009KT 07/00 A2982 RMK A01 T00730003  RH  061%=      5-min Rain = 0
KOD1 091338Z 16010KT 07/00 A2983 RMK A01 T00740004  RH  061%=      5-min Rain = 0
KOD1 091339Z 16009KT 07/00 A2983 RMK A01 T00740004  RH  061%=      5-min Rain = 0
KOD1 091340Z 16009KT 07/00 A2983 RMK A01 T00740004  RH  061%=      5-min Rain = 0
KOD1 091341Z 16009KT 08/00 A2983 RMK A01 T00750004  RH  061%=      5-min Rain = 0
KOD1 091342Z 16010KT 08/01 A2983 RMK A01 T00750005  RH  061%=      5-min Rain = 0
KOD1 091343Z 15009KT 08/01 A2983 RMK A01 T00760005  RH  061%=      5-min Rain = 0
KOD1 091344Z 15010KT 08/01 A2983 RMK A01 T00760005  RH  061%=      5-min Rain = 0
KOD1 091345Z 16010KT 08/01 A2982 RMK A01 T00770006  RH  061%=      5-min Rain = 0
KOD1 091346Z 16009KT 08/01 A2982 RMK A01 T00770006  RH  061%=      5-min Rain = 0
KOD1 091347Z 16009KT 08/01 A2982 RMK A01 T00780006  RH  060%=      5-min Rain = 0
KOD1 091348Z 16009KT 08/01 A2982 RMK A01 T00790007  RH  060%=      5-min Rain = 0
KOD1 091349Z 16010KT 08/01 A2982 RMK A01 T00790007  RH  060%=      5-min Rain = 0
KOD1 091350Z 16010KT 08/01 A2982 RMK A01 T00790008  RH  061%=      5-min Rain = 0
KOD1 091351Z 16011KT 08/01 A2982 RMK A01 T00800008  RH  061%=      5-min Rain = 0
KOD1 091352Z 16010KT 08/01 A2982 RMK A01 T00800009  RH  061%=      5-min Rain = 0
KOD1 091353Z 16011KT 08/01 A2982 RMK A01 T00800009  RH  061%=      5-min Rain = 0
KOD1 091354Z 16010KT 08/01 A2982 RMK A01 T00810009  RH  061%=      5-min Rain = 0
KOD1 091355Z 16011KT 08/01 A2982 RMK A01 T00820010  RH  061%=      5-min Rain = 0
KOD1 091356Z 16011KT 08/01 A2982 RMK A01 T00830010  RH  060%=      5-min Rain = 0
KOD1 091357Z 16011KT 08/01 A2982 RMK A01 T00840011  RH  060%=      5-min Rain = 0
KOD1 091358Z 16010KT 08/01 A2982 RMK A01 T00840011  RH  060%=      5-min Rain = 0
KOD1 091359Z 16010KT 09/01 A2982 RMK A01 T00850012  RH  060%=      5-min Rain = 0
KOD1 091400Z 17010KT 09/01 A2982 RMK A01 T00860012  RH  060%=      5-min Rain = 0
KOD1 091401Z 16009KT 09/01 A2982 RMK A01 T00870014  RH  060%=      5-min Rain = 0
KOD1 091402Z 17011KT 09/01 A2982 RMK A01 T00880014  RH  060%=      5-min Rain = 0
KOD1 091403Z 16010KT 09/01 A2982 RMK A01 T00880014  RH  060%=      5-min Rain = 0
KOD1 091404Z 16010KT 09/01 A2982 RMK A01 T00890014  RH  060%=      5-min Rain = 0
KOD1 091405Z 17010KT 09/02 A2982 RMK A01 T00890015  RH  060%=      5-min Rain = 0
KOD1 091406Z 17011KT 09/02 A2982 RMK A01 T00900015  RH  060%=      5-min Rain = 0
KOD1 091407Z 17012KT 09/02 A2982 RMK A01 T00910017  RH  060%=      5-min Rain = 0
KOD1 091408Z 17011KT 09/02 A2981 RMK A01 T00920017  RH  059%=      5-min Rain = 0
KOD1 091409Z 17012KT 09/02 A2982 RMK A01 T00930018  RH  060%=      5-min Rain = 0
KOD1 091410Z 17011KT 09/02 A2982 RMK A01 T00940018  RH  059%=      5-min Rain = 0
KOD1 091411Z 17011KT 09/02 A2982 RMK A01 T00940018  RH  059%=      5-min Rain = 0
KOD1 091412Z 17010KT 10/02 A2982 RMK A01 T00950019  RH  059%=      5-min Rain = 0
KOD1 091413Z 17011KT 10/02 A2981 RMK A01 T00960020  RH  059%=      5-min Rain = 0
KOD1 091414Z 17012KT 10/02 A2981 RMK A01 T00970021  RH  059%=      5-min Rain = 0
KOD1 091415Z 17013KT 10/02 A2981 RMK A01 T00990022  RH  059%=      5-min Rain = 0
KOD1 091416Z 18013KT 10/02 A2981 RMK A01 T01010022  RH  058%=      5-min Rain = 0
KOD1 091417Z 17012KT 10/02 A2981 RMK A01 T01020023  RH  058%=      5-min Rain = 0
KOD1 091418Z 18012KT 10/02 A2981 RMK A01 T01030024  RH  058%=      5-min Rain = 0
KOD1 091419Z 18013KT 10/03 A2981 RMK A01 T01040025  RH  058%=      5-min Rain = 0
KOD1 091420Z 18014KT 11/03 A2981 RMK A01 T01060026  RH  058%=      5-min Rain = 0
KOD1 091421Z 17013KT 11/03 A2981 RMK A01 T01070027  RH  058%=      5-min Rain = 0
KOD1 091422Z 18013KT 11/03 A2981 RMK A01 T01080028  RH  057%=      5-min Rain = 0
KOD1 091423Z 18014KT 11/03 A2981 RMK A01 T01090028  RH  057%=      5-min Rain = 0
KOD1 091424Z 18014KT 11/03 A2981 RMK A01 T01100028  RH  057%=      5-min Rain = 0
KOD1 091425Z 18013KT 11/03 A2981 RMK A01 T01100028  RH  057%=      5-min Rain = 0
KOD1 091426Z 18012KT 11/03 A2981 RMK A01 T01110029  RH  057%=      5-min Rain = 0
KOD1 091427Z 18012KT 11/03 A2981 RMK A01 T01110029  RH  057%=      5-min Rain = 0
KOD1 091428Z 18014KT 11/03 A2981 RMK A01 T01120030  RH  057%=      5-min Rain = 0
KOD1 091429Z 18013KT 11/03 A2981 RMK A01 T01130031  RH  057%=      5-min Rain = 0
KOD1 091430Z 18013KT 11/03 A2981 RMK A01 T01140031  RH  057%=      5-min Rain = 0
KOD1 091431Z 18013KT 12/03 A2981 RMK A01 T01150032  RH  057%=      5-min Rain = 0
KOD1 091432Z 18014KT 12/03 A2981 RMK A01 T01150031  RH  056%=      5-min Rain = 0
KOD1 091433Z 18014KT 12/03 A2981 RMK A01 T01150032  RH  057%=      5-min Rain = 0
KOD1 091434Z 18013KT 12/03 A2981 RMK A01 T01160032  RH  056%=      5-min Rain = 0
KOD1 091435Z 18014KT 12/03 A2981 RMK A01 T01160032  RH  056%=      5-min Rain = 0
KOD1 091436Z 18015KT 12/03 A2981 RMK A01 T01160033  RH  056%=      5-min Rain = 0
KOD1 091437Z 18015KT 12/03 A2981 RMK A01 T01160033  RH  057%=      5-min Rain = 0
KOD1 091438Z 18014KT 12/03 A2981 RMK A01 T01170034  RH  057%=      5-min Rain = 0
KOD1 091439Z 18014KT 12/03 A2981 RMK A01 T01180034  RH  057%=      5-min Rain = 0
KOD1 091440Z 18014KT 12/04 A2981 RMK A01 T01180035  RH  057%=      5-min Rain = 0
KOD1 091441Z 18013KT 12/04 A2981 RMK A01 T01200036  RH  057%=      5-min Rain = 0
KOD1 091442Z 18014KT 12/04 A2981 RMK A01 T01200036  RH  056%=      5-min Rain = 0
KOD1 091443Z 18015KT 12/04 A2981 RMK A01 T01210036  RH  056%=      5-min Rain = 0
KOD1 091444Z 18014KT 12/04 A2981 RMK A01 T01210036  RH  056%=      5-min Rain = 0
KOD1 091445Z 18013KT 12/04 A2981 RMK A01 T01220038  RH  056%=      5-min Rain = 0
KOD1 091446Z 18014KT 12/04 A2981 RMK A01 T01230037  RH  056%=      5-min Rain = 0
KOD1 091447Z 18015KT 12/04 A2981 RMK A01 T01230037  RH  056%=      5-min Rain = 0
KOD1 091448Z 18014KT 12/04 A2981 RMK A01 T01230038  RH  056%=      5-min Rain = 0
KOD1 091449Z 18015KT 12/04 A298 RMK A01 T01230037  RH  056%=      5-min Rain = 0
KOD1 091450Z 18012KT 12/04 A298 RMK A01 T01240039  RH  056%=      5-min Rain = 0
KOD1 091451Z 18013KT 13/04 A298 RMK A01 T01250039  RH  056%=      5-min Rain = 0
KOD1 091452Z 18014KT 13/04 A298 RMK A01 T01250038  RH  055%=      5-min Rain = 0
KOD1 091453Z 18015KT 13/04 A298 RMK A01 T01250038  RH  056%=      5-min Rain = 0
KOD1 091454Z 18016KT 13/04 A298 RMK A01 T01250039  RH  056%=      5-min Rain = 0
KOD1 091455Z 18016KT 13/04 A298 RMK A01 T01250040  RH  056%=      5-min Rain = 0
KOD1 091456Z 18014KT 13/04 A298 RMK A01 T01250040  RH  056%=      5-min Rain = 0
KOD1 091457Z 18012KT 13/04 A298 RMK A01 T01260042  RH  056%=      5-min Rain = 0
KOD1 091458Z 18012KT 13/04 A298 RMK A01 T01280043  RH  056%=      5-min Rain = 0
KOD1 091459Z 19012KT 13/04 A298 RMK A01 T01300044  RH  056%=      5-min Rain = 0
KOD1 091500Z 18014KT 13/04 A298 RMK A01 T01310043  RH  055%=      5-min Rain = 0
KOD1 091501Z 18012KT 13/04 A298 RMK A01 T01310043  RH  055%=      5-min Rain = 0
KOD1 091502Z 18011G17KT 13/05 A298 RMK A01 T01320045  RH  055%=      5-min Rain = 0
KOD1 091503Z 19014KT 13/04 A298 RMK A01 T01340044  RH  055%=      5-min Rain = 0
KOD1 091504Z 18014KT 13/05 A298 RMK A01 T01340045  RH  055%=      5-min Rain = 0
KOD1 091505Z 18016KT 14/05 A298 RMK A01 T01350045  RH  055%=      5-min Rain = 0
KOD1 091506Z 18014KT 14/05 A298 RMK A01 T01350045  RH  054%=      5-min Rain = 0
KOD1 091507Z 18014KT 14/05 A298 RMK A01 T01360046  RH  055%=      5-min Rain = 0
KOD1 091508Z 18013KT 14/05 A298 RMK A01 T01360046  RH  054%=      5-min Rain = 0
KOD1 091509Z 19014KT 14/05 A298 RMK A01 T01370046  RH  054%=      5-min Rain = 0
KOD1 091510Z 18015KT 14/05 A298 RMK A01 T01370047  RH  054%=      5-min Rain = 0
KOD1 091511Z 18014KT 14/05 A298 RMK A01 T01370046  RH  054%=      5-min Rain = 0
KOD1 091512Z 18013KT 14/05 A298 RMK A01 T01370047  RH  054%=      5-min Rain = 0
KOD1 091513Z 18015KT 14/05 A298 RMK A01 T01380047  RH  054%=      5-min Rain = 0
KOD1 091514Z 18015KT 14/05 A298 RMK A01 T01380047  RH  054%=      5-min Rain = 0
KOD1 091515Z 18013KT 14/05 A298 RMK A01 T01390049  RH  054%=      5-min Rain = 0
KOD1 091516Z 18014KT 14/05 A298 RMK A01 T01400048  RH  054%=      5-min Rain = 0
KOD1 091517Z 18015KT 14/05 A298 RMK A01 T01410048  RH  053%=      5-min Rain = 0
KOD1 091518Z 19013KT 14/05 A298 RMK A01 T01410049  RH  054%=      5-min Rain = 0
KOD1 091519Z 18012G17KT 14/05 A298 RMK A01 T01410049  RH  054%=      5-min Rain = 0
KOD1 091520Z 19015KT 14/05 A298 RMK A01 T01420049  RH  053%=      5-min Rain = 0
KOD1 091521Z 18014KT 14/05 A298 RMK A01 T01420050  RH  054%=      5-min Rain = 0
KOD1 091522Z 18015KT 14/05 A298 RMK A01 T01430050  RH  053%=      5-min Rain = 0
KOD1 091523Z 18017KT 14/05 A298 RMK A01 T01440050  RH  053%=      5-min Rain = 0
KOD1 091524Z 20016KT 14/05 A298 RMK A01 T01440050  RH  053%=      5-min Rain = 0
KOD1 091525Z 20014KT 15/05 A298 RMK A01 T01460051  RH  053%=      5-min Rain = 0
KOD1 091526Z 20012KT 15/05 A298 RMK A01 T01470052  RH  053%=      5-min Rain = 0
KOD1 091527Z 20013G18KT 15/05 A298 RMK A01 T01480052  RH  052%=      5-min Rain = 0
KOD1 091528Z 19016KT 15/05 A298 RMK A01 T01490051  RH  052%=      5-min Rain = 0
KOD1 091529Z 19015KT 15/05 A298 RMK A01 T01490051  RH  052%=      5-min Rain = 0
KOD1 091530Z 19014KT 15/05 A298 RMK A01 T01500052  RH  052%=      5-min Rain = 0
KOD1 091531Z 20016KT 15/05 A298 RMK A01 T01500051  RH  052%=      5-min Rain = 0
KOD1 091532Z 20014G20KT 15/05 A298 RMK A01 T01500052  RH  052%=      5-min Rain = 0
KOD1 091533Z 21015KT 15/05 A298 RMK A01 T01500052  RH  052%=      5-min Rain = 0
KOD1 091534Z 20016KT 15/05 A298 RMK A01 T01500052  RH  052%=      5-min Rain = 0
KOD1 091535Z 21016KT 15/05 A298 RMK A01 T01500052  RH  052%=      5-min Rain = 0
KOD1 091536Z 19016KT 15/05 A298 RMK A01 T01500052  RH  052%=      5-min Rain = 0
KOD1 091537Z 19017KT 15/05 A298 RMK A01 T01500051  RH  051%=      5-min Rain = 0
KOD1 091538Z 20017KT 15/05 A298 RMK A01 T01500052  RH  052%=      5-min Rain = 0
KOD1 091539Z 20015KT 15/05 A298 RMK A01 T01500051  RH  051%=      5-min Rain = 0
KOD1 091540Z 20013KT 15/05 A298 RMK A01 T01520053  RH  052%=      5-min Rain = 0
KOD1 091541Z 21016KT 15/05 A298 RMK A01 T01530053  RH  051%=      5-min Rain = 0
KOD1 091542Z 21017KT 15/05 A298 RMK A01 T01540052  RH  051%=      5-min Rain = 0
KOD1 091543Z 20015KT 15/05 A298 RMK A01 T01540053  RH  051%=      5-min Rain = 0
KOD1 091544Z 19016KT 15/05 A298 RMK A01 T01540052  RH  050%=      5-min Rain = 0
KOD1 091545Z 20015KT 16/05 A298 RMK A01 T01550052  RH  050%=      5-min Rain = 0
KOD1 091546Z 20015KT 15/05 A298 RMK A01 T01540052  RH  051%=      5-min Rain = 0
KOD1 091547Z 20017KT 15/05 A298 RMK A01 T01540051  RH  050%=      5-min Rain = 0
KOD1 091548Z 21015KT 16/05 A298 RMK A01 T01550053  RH  051%=      5-min Rain = 0
KOD1 091549Z 21015KT 16/05 A298 RMK A01 T01560053  RH  050%=      5-min Rain = 0
KOD1 091550Z 20017KT 16/05 A298 RMK A01 T01570052  RH  050%=      5-min Rain = 0
KOD1 091551Z 20013KT 16/05 A298 RMK A01 T01580053  RH  050%=      5-min Rain = 0
KOD1 091552Z 21016KT 16/05 A298 RMK A01 T01590053  RH  049%=      5-min Rain = 0
KOD1 091553Z 21014KT 16/05 A298 RMK A01 T01600054  RH  049%=      5-min Rain = 0
KOD1 091554Z 20013KT 16/05 A298 RMK A01 T01610054  RH  049%=      5-min Rain = 0
KOD1 091555Z 19014KT 16/05 A298 RMK A01 T01610054  RH  049%=      5-min Rain = 0
KOD1 091556Z 19016KT 16/05 A298 RMK A01 T01610053  RH  049%=      5-min Rain = 0
KOD1 091557Z 19014KT 16/05 A298 RMK A01 T01620053  RH  049%=      5-min Rain = 0
KOD1 091558Z 19016KT 16/05 A298 RMK A01 T01620053  RH  048%=      5-min Rain = 0
KOD1 091559Z 20015KT 16/06 A298 RMK A01 T01630055  RH  049%=      5-min Rain = 0
KOD1 091600Z 20014KT 16/05 A298 RMK A01 T01620054  RH  049%=      5-min Rain = 0
KOD1 091601Z 20013KT 16/06 A298 RMK A01 T01640056  RH  049%=      5-min Rain = 0
KOD1 091602Z 20017KT 17/05 A298 RMK A01 T01650053  RH  047%=      5-min Rain = 0
KOD1 091603Z 20016KT 17/05 A298 RMK A01 T01660053  RH  047%=      5-min Rain = 0
KOD1 091604Z 21015KT 17/05 A298 RMK A01 T01670052  RH  047%=      5-min Rain = 0
KOD1 091605Z 22014KT 17/05 A298 RMK A01 T01690053  RH  046%=      5-min Rain = 0
KOD1 091606Z 22018KT 17/05 A298 RMK A01 T01710051  RH  045%=      5-min Rain = 0
KOD1 091607Z 20015KT 17/05 A298 RMK A01 T01710049  RH  045%=      5-min Rain = 0
KOD1 091608Z 20014KT 17/05 A298 RMK A01 T01710051  RH  045%=      5-min Rain = 0
KOD1 091609Z 21014G21KT 17/05 A298 RMK A01 T01720052  RH  045%=      5-min Rain = 0
KOD1 091610Z 21015KT 17/05 A298 RMK A01 T01720050  RH  044%=      5-min Rain = 0
KOD1 091611Z 20015KT 17/05 A298 RMK A01 T01720050  RH  044%=      5-min Rain = 0
KOD1 091612Z 20016KT 17/05 A298 RMK A01 T01720048  RH  044%=      5-min Rain = 0
KOD1 091613Z 21013KT 17/05 A298 RMK A01 T01720052  RH  045%=      5-min Rain = 0
KOD1 091614Z 21017KT 17/05 A298 RMK A01 T01740049  RH  043%=      5-min Rain = 0
KOD1 091615Z 20018KT 17/05 A2979 RMK A01 T01730049  RH  044%=      5-min Rain = 0
KOD1 091616Z 21018KT 17/05 A2979 RMK A01 T01730045  RH  043%=      5-min Rain = 0
KOD1 091617Z 20017KT 17/05 A2979 RMK A01 T01730045  RH  043%=      5-min Rain = 0
KOD1 091618Z 21018KT 17/05 A2979 RMK A01 T01740045  RH  043%=      5-min Rain = 0
KOD1 091619Z 21019KT 17/05 A2979 RMK A01 T01740045  RH  042%=      5-min Rain = 0
KOD1 091620Z 21018KT 17/05 A2979 RMK A01 T01740045  RH  042%=      5-min Rain = 0
KOD1 091621Z 21016KT 17/05 A2979 RMK A01 T01740047  RH  043%=      5-min Rain = 0
KOD1 091622Z 21016KT 17/05 A2979 RMK A01 T01740046  RH  043%=      5-min Rain = 0
KOD1 091623Z 21016KT 18/05 A2979 RMK A01 T01750046  RH  042%=      5-min Rain = 0
KOD1 091624Z 20016KT 18/05 A2979 RMK A01 T01750049  RH  043%=      5-min Rain = 0
KOD1 091625Z 21017KT 18/05 A2979 RMK A01 T01760045  RH  042%=      5-min Rain = 0
KOD1 091626Z 21016KT 18/05 A2979 RMK A01 T01760047  RH  042%=      5-min Rain = 0
KOD1 091627Z 21017KT 18/05 A298 RMK A01 T01770048  RH  043%=      5-min Rain = 0
KOD1 091628Z 20017KT 18/05 A298 RMK A01 T01780046  RH  042%=      5-min Rain = 0
KOD1 091629Z 21014KT 18/05 A298 RMK A01 T01770050  RH  043%=      5-min Rain = 0
KOD1 091630Z 21014G20KT 18/05 A298 RMK A01 T01790049  RH  042%=      5-min Rain = 0
KOD1 091631Z 22016KT 18/05 A298 RMK A01 T01800046  RH  041%=      5-min Rain = 0
KOD1 091632Z 22015KT 18/05 A298 RMK A01 T01800045  RH  041%=      5-min Rain = 0
KOD1 091633Z 22014KT 18/05 A298 RMK A01 T01800049  RH  042%=      5-min Rain = 0
KOD1 091634Z 21013KT 18/05 A2979 RMK A01 T01810051  RH  042%=      5-min Rain = 0
KOD1 091635Z 21017KT 18/05 A2979 RMK A01 T01830049  RH  041%=      5-min Rain = 0
KOD1 091636Z 20015KT 18/05 A2979 RMK A01 T01830051  RH  042%=      5-min Rain = 0
KOD1 091637Z 20014KT 18/05 A2979 RMK A01 T01820050  RH  042%=      5-min Rain = 0
KOD1 091638Z 22017G25KT 18/05 A298 RMK A01 T01830050  RH  042%=      5-min Rain = 0
KOD1 091639Z 22013KT 18/05 A298 RMK A01 T01840050  RH  041%=      5-min Rain = 0
KOD1 091640Z 22013G18KT 19/05 A2979 RMK A01 T01850052  RH  041%=      5-min Rain = 0
KOD1 091641Z 21014KT 19/05 A2979 RMK A01 T01860051  RH  041%=      5-min Rain = 0
KOD1 091642Z 20014KT 19/05 A2979 RMK A01 T01860051  RH  041%=      5-min Rain = 0
KOD1 091643Z 21014KT 19/05 A2979 RMK A01 T01870052  RH  041%=      5-min Rain = 0
KOD1 091644Z 21014KT 19/05 A2979 RMK A01 T01880046  RH  039%=      5-min Rain = 0
KOD1 091645Z 22017KT 19/04 A2979 RMK A01 T01890041  RH  037%=      5-min Rain = 0
KOD1 091646Z 22014KT 19/03 A2979 RMK A01 T01900033  RH  035%=      5-min Rain = 0
KOD1 091647Z 23014KT 19/03 A2979 RMK A01 T01920033  RH  035%=      5-min Rain = 0
KOD1 091648Z 22013KT 19/04 A2979 RMK A01 T01940037  RH  035%=      5-min Rain = 0
KOD1 091649Z 21013G18KT 20/04 A2979 RMK A01 T01950035  RH  035%=      5-min Rain = 0
KOD1 091650Z 21014KT 20/04 A2979 RMK A01 T01950042  RH  036%=      5-min Rain = 0
KOD1 091651Z 21014KT 20/04 A2979 RMK A01 T01950042  RH  036%=      5-min Rain = 0
KOD1 091652Z 21016KT 20/04 A2979 RMK A01 T01960038  RH  035%=      5-min Rain = 0
KOD1 091653Z 22015KT 20/04 A2979 RMK A01 T01950036  RH  035%=      5-min Rain = 0
KOD1 091654Z 22015KT 20/04 A2979 RMK A01 T01950038  RH  035%=      5-min Rain = 0
KOD1 091655Z 21015KT 20/04 A2979 RMK A01 T01950036  RH  035%=      5-min Rain = 0
KOD1 091656Z 21017KT 20/03 A2979 RMK A01 T01950031  RH  034%=      5-min Rain = 0
KOD1 091657Z 22016KT 20/03 A2979 RMK A01 T01960031  RH  034%=      5-min Rain = 0
KOD1 091658Z 23016KT 20/03 A2979 RMK A01 T01960030  RH  033%=      5-min Rain = 0
KOD1 091659Z 23014KT 20/03 A2979 RMK A01 T01960033  RH  034%=      5-min Rain = 0
KOD1 091700Z 23015KT 20/03 A2979 RMK A01 T01970033  RH  034%=      5-min Rain = 0
KOD1 091701Z 23014KT 20/04 A2979 RMK A01 T01980035  RH  034%=      5-min Rain = 0
KOD1 091702Z 21015KT 20/04 A2979 RMK A01 T01990036  RH  034%=      5-min Rain = 0
KOD1 091703Z 21013KT 20/03 A2979 RMK A01 T02000032  RH  033%=      5-min Rain = 0
KOD1 091704Z 22014G20KT 20/03 A2979 RMK A01 T02010034  RH  033%=      5-min Rain = 0
KOD1 091705Z 22016KT 20/03 A2978 RMK A01 T02020030  RH  032%=      5-min Rain = 0
KOD1 091706Z 21015KT 20/03 A2979 RMK A01 T02010027  RH  032%=      5-min Rain = 0
KOD1 091707Z 22013KT 20/03 A2979 RMK A01 T02010026  RH  031%=      5-min Rain = 0
KOD1 091708Z 22013KT 20/03 A2979 RMK A01 T02010027  RH  032%=      5-min Rain = 0
KOD1 091709Z 22014KT 20/03 A2979 RMK A01 T02010028  RH  032%=      5-min Rain = 0
KOD1 091710Z 22013KT 20/03 A2979 RMK A01 T02020029  RH  032%=      5-min Rain = 0
KOD1 091711Z 22012KT 20/03 A2979 RMK A01 T02010029  RH  032%=      5-min Rain = 0
KOD1 091712Z 21014KT 20/03 A2979 RMK A01 T02000030  RH  032%=      5-min Rain = 0
KOD1 091713Z 21014KT 20/03 A2979 RMK A01 T02000031  RH  032%=      5-min Rain = 0
KOD1 091714Z 20016KT 20/03 A2978 RMK A01 T02010030  RH  032%=      5-min Rain = 0
KOD1 091715Z 22015KT 20/03 A2979 RMK A01 T02040029  RH  031%=      5-min Rain = 0
KOD1 091716Z 22012KT 21/03 A2979 RMK A01 T02050029  RH  031%=      5-min Rain = 0
KOD1 091717Z 23013KT 21/03 A2979 RMK A01 T02050029  RH  031%=      5-min Rain = 0
KOD1 091718Z 21015KT 21/03 A2979 RMK A01 T02060032  RH  032%=      5-min Rain = 0
KOD1 091719Z 20014KT 21/03 A2979 RMK A01 T02070030  RH  031%=      5-min Rain = 0
KOD1 091720Z 20013KT 21/03 A2979 RMK A01 T02070030  RH  031%=      5-min Rain = 0
KOD1 091721Z 22014KT 21/03 A2979 RMK A01 T02060031  RH  031%=      5-min Rain = 0
KOD1 091722Z 24011KT 21/03 A2979 RMK A01 T02060028  RH  031%=      5-min Rain = 0
KOD1 091723Z 22011KT 21/03 A2979 RMK A01 T02070026  RH  030%=      5-min Rain = 0
KOD1 091724Z 21011KT 21/03 A2979 RMK A01 T02070028  RH  031%=      5-min Rain = 0
KOD1 091725Z 22011KT 21/03 A2979 RMK A01 T02070030  RH  031%=      5-min Rain = 0
KOD1 091726Z 22014KT 21/03 A2979 RMK A01 T02090027  RH  030%=      5-min Rain = 0
KOD1 091727Z 21013KT 21/02 A2979 RMK A01 T02080024  RH  030%=      5-min Rain = 0
KOD1 091728Z 22012KT 21/03 A2979 RMK A01 T02070025  RH  030%=      5-min Rain = 0
KOD1 091729Z 22012G17KT 21/03 A2978 RMK A01 T02080029  RH  031%=      5-min Rain = 0
KOD1 091730Z 23013KT 21/03 A2978 RMK A01 T02090029  RH  031%=      5-min Rain = 0
KOD1 091731Z 22011KT 21/03 A2978 RMK A01 T02090030  RH  031%=      5-min Rain = 0
KOD1 091732Z 22010KT 21/03 A2978 RMK A01 T02090031  RH  031%=      5-min Rain = 0
KOD1 091733Z 23011KT 21/03 A2978 RMK A01 T02090031  RH  031%=      5-min Rain = 0
KOD1 091734Z 22013KT 21/03 A2978 RMK A01 T02100029  RH  030%=      5-min Rain = 0
KOD1 091735Z 21014KT 21/03 A2978 RMK A01 T02100026  RH  030%=      5-min Rain = 0
KOD1 091736Z 21014KT 21/03 A2978 RMK A01 T02090027  RH  030%=      5-min Rain = 0
KOD1 091737Z 22014KT 21/03 A2978 RMK A01 T02100027  RH  030%=      5-min Rain = 0
KOD1 091738Z 21013KT 21/03 A2978 RMK A01 T02100025  RH  029%=      5-min Rain = 0
KOD1 091739Z 22014KT 21/03 A2978 RMK A01 T02110030  RH  030%=      5-min Rain = 0
KOD1 091740Z 24014KT 21/03 A2978 RMK A01 T02140025  RH  029%=      5-min Rain = 0
KOD1 091741Z 24011KT 22/02 A2978 RMK A01 T02160024  RH  028%=      5-min Rain = 0
KOD1 091742Z 23011KT 22/02 A2978 RMK A01 T02150023  RH  028%=      5-min Rain = 0
KOD1 091743Z 23010KT 21/02 A2978 RMK A01 T02140024  RH  028%=      5-min Rain = 0
KOD1 091744Z 22012KT 22/03 A2978 RMK A01 T02160030  RH  029%=      5-min Rain = 0
KOD1 091745Z 21013KT 22/03 A2978 RMK A01 T02160026  RH  028%=      5-min Rain = 0
KOD1 091746Z 22011KT 22/03 A2978 RMK A01 T02150026  RH  029%=      5-min Rain = 0
KOD1 091747Z 23013KT 22/03 A2978 RMK A01 T02150025  RH  029%=      5-min Rain = 0
KOD1 091748Z 23010KT 21/03 A2978 RMK A01 T02130028  RH  029%=      5-min Rain = 0
KOD1 091749Z 21012KT 22/03 A2978 RMK A01 T02150029  RH  029%=      5-min Rain = 0
KOD1 091750Z 22009KT 22/03 A2978 RMK A01 T02150030  RH  030%=      5-min Rain = 0
KOD1 091751Z 20010G17KT 22/03 A2977 RMK A01 T02160031  RH  030%=      5-min Rain = 0
KOD1 091752Z 20011KT 22/03 A2977 RMK A01 T02170032  RH  029%=      5-min Rain = 0
KOD1 091753Z 19008KT 22/03 A2977 RMK A01 T02180030  RH  029%=      5-min Rain = 0
KOD1 091754Z 22011KT 22/03 A2977 RMK A01 T02190033  RH  029%=      5-min Rain = 0
KOD1 091755Z 21011KT 22/03 A2977 RMK A01 T02190030  RH  029%=      5-min Rain = 0
KOD1 091756Z 19012KT 22/03 A2977 RMK A01 T02180030  RH  029%=      5-min Rain = 0
KOD1 091757Z 20008KT 22/03 A2977 RMK A01 T02170028  RH  029%=      5-min Rain = 0
KOD1 091758Z 20007KT 22/03 A2977 RMK A01 T02170032  RH  030%=      5-min Rain = 0
KOD1 091759Z 21006KT 22/03 A2977 RMK A01 T02180028  RH  029%=      5-min Rain = 0
KOD1 091800Z 22010KT 22/03 A2977 RMK A01 T02180029  RH  029%=      5-min Rain = 0
KOD1 091801Z 21008KT 22/03 A2977 RMK A01 T02190025  RH  028%=      5-min Rain = 0
KOD1 091802Z 21008KT 22/03 A2977 RMK A01 T02210027  RH  028%=      5-min Rain = 0
KOD1 091803Z 20011KT 22/03 A2977 RMK A01 T02230031  RH  029%=      5-min Rain = 0
KOD1 091804Z 19011KT 22/03 A2977 RMK A01 T02230028  RH  028%=      5-min Rain = 0
KOD1 091805Z 20010KT 22/03 A2977 RMK A01 T02220028  RH  028%=      5-min Rain = 0
KOD1 091806Z 19008KT 22/03 A2977 RMK A01 T02220028  RH  028%=      5-min Rain = 0
KOD1 091807Z 21007KT 22/03 A2977 RMK A01 T02230033  RH  029%=      5-min Rain = 0
KOD1 091808Z 22011KT 23/02 A2976 RMK A01 T02250024  RH  027%=      5-min Rain = 0
KOD1 091809Z 21012KT 23/03 A2976 RMK A01 T02260027  RH  027%=      5-min Rain = 0
KOD1 091810Z 20012KT 23/03 A2976 RMK A01 T02270028  RH  027%=      5-min Rain = 0
KOD1 091811Z 19011KT 23/03 A2976 RMK A01 T02280025  RH  026%=      5-min Rain = 0
KOD1 091812Z 19007KT 23/03 A2976 RMK A01 T02270027  RH  027%=      5-min Rain = 0
KOD1 091813Z 20010KT 23/03 A2976 RMK A01 T02290028  RH  027%=      5-min Rain = 0
KOD1 091814Z 20011KT 23/02 A2976 RMK A01 T02300021  RH  025%=      5-min Rain = 0
KOD1 091815Z 20009KT 23/02 A2976 RMK A01 T02290019  RH  025%=      5-min Rain = 0
KOD1 091816Z 19011KT 23/02 A2976 RMK A01 T02290022  RH  026%=      5-min Rain = 0
KOD1 091817Z 20011KT 23/02 A2976 RMK A01 T02310018  RH  025%=      5-min Rain = 0
KOD1 091818Z 20009KT 23/02 A2976 RMK A01 T02310022  RH  025%=      5-min Rain = 0
KOD1 091819Z 20013KT 23/02 A2976 RMK A01 T02340019  RH  024%=      5-min Rain = 0
KOD1 091820Z 20013KT 23/02 A2976 RMK A01 T02330017  RH  024%=      5-min Rain = 0
KOD1 091821Z 21014KT 23/02 A2976 RMK A01 T02340020  RH  024%=      5-min Rain = 0
KOD1 091822Z 21011KT 24/02 A2976 RMK A01 T02350018  RH  024%=      5-min Rain = 0
KOD1 091823Z 22008KT 24/02 A2976 RMK A01 T02350017  RH  024%=      5-min Rain = 0
KOD1 091824Z 22007KT 24/02 A2976 RMK A01 T02360022  RH  024%=      5-min Rain = 0
KOD1 091825Z 22008KT 24/01 A2976 RMK A01 T02370014  RH  023%=      5-min Rain = 0
KOD1 091826Z 20007KT 24/02 A2976 RMK A01 T02360018  RH  024%=      5-min Rain = 0
KOD1 091827Z 21006KT 24/02 A2976 RMK A01 T02360018  RH  024%=      5-min Rain = 0
KOD1 091828Z 22007KT 24/02 A2976 RMK A01 T02350018  RH  024%=      5-min Rain = 0
KOD1 091829Z 21008KT 24/02 A2976 RMK A01 T02370017  RH  024%=      5-min Rain = 0
KOD1 091830Z 21008KT 24/01 A2976 RMK A01 T02380013  RH  023%=      5-min Rain = 0
KOD1 091831Z 24009KT 24/01 A2976 RMK A01 T02380014  RH  023%=      5-min Rain = 0
KOD1 091832Z 24007KT 24/01 A2976 RMK A01 T02380013  RH  023%=      5-min Rain = 0
KOD1 091833Z 23006KT 24/01 A2976 RMK A01 T02380013  RH  023%=      5-min Rain = 0
KOD1 091834Z 22008KT 24/02 A2975 RMK A01 T02390019  RH  024%=      5-min Rain = 0
KOD1 091835Z 22010KT 24/01 A2975 RMK A01 T02400012  RH  022%=      5-min Rain = 0
KOD1 091836Z 23009KT 24/01 A2975 RMK A01 T02400014  RH  023%=      5-min Rain = 0
KOD1 091837Z 22008KT 24/01 A2975 RMK A01 T02400008  RH  022%=      5-min Rain = 0
KOD1 091838Z 22009KT 24/01 A2975 RMK A01 T02400014  RH  023%=      5-min Rain = 0
KOD1 091839Z 21012KT 24/02 A2975 RMK A01 T02420016  RH  023%=      5-min Rain = 0
KOD1 091840Z 21010KT 24/01 A2975 RMK A01 T02420012  RH  022%=      5-min Rain = 0
KOD1 091841Z 20010KT 24/01 A2975 RMK A01 T02400013  RH  022%=      5-min Rain = 0
KOD1 091842Z 20006KT 24/01 A2975 RMK A01 T02380014  RH  023%=      5-min Rain = 0
KOD1 091843Z 19007KT 24/02 A2975 RMK A01 T02380015  RH  023%=      5-min Rain = 0
KOD1 091844Z 18007KT 24/01 A2975 RMK A01 T02390013  RH  023%=      5-min Rain = 0
KOD1 091845Z 20004KT 24/01 A2975 RMK A01 T02390013  RH  023%=      5-min Rain = 0
KOD1 091846Z 22005KT 24/01 A2975 RMK A01 T02380012  RH  023%=      5-min Rain = 0
KOD1 091847Z 24010KT 24/02 A2975 RMK A01 T02390015  RH  023%=      5-min Rain = 0
KOD1 091848Z 24009KT 24/01 A2975 RMK A01 T02410013  RH  022%=      5-min Rain = 0
KOD1 091849Z 21008KT 24/02 A2975 RMK A01 T02420017  RH  023%=      5-min Rain = 0
KOD1 091850Z 22009KT 25/02 A2975 RMK A01 T02450019  RH  023%=      5-min Rain = 0
KOD1 091851Z 25009KT 25/01 A2975 RMK A01 T02470014  RH  022%=      5-min Rain = 0
KOD1 091852Z 24007KT 25/02 A2975 RMK A01 T02480018  RH  022%=      5-min Rain = 0
KOD1 091853Z 21008KT 25/01 A2975 RMK A01 T02480012  RH  021%=      5-min Rain = 0
KOD1 091854Z 20005KT 25/01 A2975 RMK A01 T02460011  RH  021%=      5-min Rain = 0
KOD1 091855Z 20007G12KT 24/01 A2975 RMK A01 T02440014  RH  022%=      5-min Rain = 0
KOD1 091856Z 21010KT 25/02 A2975 RMK A01 T02450015  RH  022%=      5-min Rain = 0
KOD1 091857Z 22010KT 25/02 A2974 RMK A01 T02470016  RH  022%=      5-min Rain = 0
KOD1 091858Z 23009KT 25/01 A2974 RMK A01 T02480012  RH  021%=      5-min Rain = 0
KOD1 091859Z 23005KT 25/01 A2974 RMK A01 T02470013  RH  021%=      5-min Rain = 0
KOD1 091900Z 20010KT 25/02 A2974 RMK A01 T02470017  RH  022%=      5-min Rain = 0
KOD1 091901Z 20010KT 25/02 A2974 RMK A01 T02480016  RH  022%=      5-min Rain = 0
KOD1 091902Z 19010KT 25/02 A2974 RMK A01 T02480016  RH  022%=      5-min Rain = 0
KOD1 091903Z 20011KT 25/02 A2974 RMK A01 T02490016  RH  022%=      5-min Rain = 0
KOD1 091904Z 21008KT 25/01 A2974 RMK A01 T02480010  RH  021%=      5-min Rain = 0
KOD1 091905Z 22006KT 25/01 A2974 RMK A01 T02460012  RH  021%=      5-min Rain = 0
KOD1 091906Z 22009G14KT 25/02 A2974 RMK A01 T02460017  RH  022%=      5-min Rain = 0
KOD1 091907Z 22012KT 25/01 A2974 RMK A01 T02490012  RH  021%=      5-min Rain = 0
KOD1 091908Z 23007KT 25/01 A2973 RMK A01 T02490011  RH  021%=      5-min Rain = 0
KOD1 091909Z 19010KT 25/01 A2973 RMK A01 T02500012  RH  021%=      5-min Rain = 0
KOD1 091910Z 20008KT 25/01 A2973 RMK A01 T02500011  RH  021%=      5-min Rain = 0
KOD1 091911Z 18010KT 25/01 A2973 RMK A01 T02500014  RH  021%=      5-min Rain = 0
KOD1 091912Z 19012KT 25/01 A2973 RMK A01 T02520013  RH  021%=      5-min Rain = 0
KOD1 091913Z 20010KT 25/01 A2973 RMK A01 T02510010  RH  021%=      5-min Rain = 0
KOD1 091914Z 20011KT 25/01 A2973 RMK A01 T02500013  RH  021%=      5-min Rain = 0
KOD1 091915Z 20010KT 25/01 A2973 RMK A01 T02500012  RH  021%=      5-min Rain = 0
KOD1 091916Z 18010KT 25/01 A2973 RMK A01 T02510011  RH  021%=      5-min Rain = 0
KOD1 091917Z 20011KT 25/01 A2973 RMK A01 T02530013  RH  021%=      5-min Rain = 0
KOD1 091918Z 21012KT 26/01 A2973 RMK A01 T02550013  RH  021%=      5-min Rain = 0
KOD1 091919Z 20011KT 26/01 A2973 RMK A01 T02560009  RH  020%=      5-min Rain = 0
KOD1 091920Z 20007KT 25/01 A2973 RMK A01 T02540007  RH  020%=      5-min Rain = 0
KOD1 091921Z 20005KT 25/01 A2973 RMK A01 T02520008  RH  020%=      5-min Rain = 0
KOD1 091922Z 20010KT 25/01 A2972 RMK A01 T02520011  RH  021%=      5-min Rain = 0
KOD1 091923Z 21013KT 25/01 A2972 RMK A01 T02540009  RH  020%=      5-min Rain = 0
KOD1 091924Z 21010G15KT 26/01 A2972 RMK A01 T02550009  RH  020%=      5-min Rain = 0
KOD1 091925Z 22008KT 26/01 A2972 RMK A01 T02560009  RH  020%=      5-min Rain = 0
KOD1 091926Z 22006KT 26/01 A2972 RMK A01 T02570009  RH  020%=      5-min Rain = 0
KOD1 091927Z 22006KT 26/01 A2972 RMK A01 T02580009  RH  020%=      5-min Rain = 0
KOD1 091928Z 20008KT 26/01 A2972 RMK A01 T02570007  RH  020%=      5-min Rain = 0
KOD1 091929Z 21010KT 26/01 A2972 RMK A01 T02560007  RH  020%=      5-min Rain = 0
KOD1 091930Z 19007KT 26/01 A2972 RMK A01 T02550007  RH  020%=      5-min Rain = 0
KOD1 091931Z 17006KT 26/01 A2972 RMK A01 T02550006  RH  020%=      5-min Rain = 0
KOD1 091932Z 18008KT 26/01 A2972 RMK A01 T02560006  RH  019%=      5-min Rain = 0
KOD1 091933Z 19009KT 26/01 A2972 RMK A01 T02570005  RH  019%=      5-min Rain = 0
KOD1 091934Z 22009KT 26/01 A2972 RMK A01 T02570007  RH  019%=      5-min Rain = 0
KOD1 091935Z 21007KT 26/00 A2972 RMK A01 T02580003  RH  019%=      5-min Rain = 0
KOD1 091936Z 20006KT 26/01 A2972 RMK A01 T02570005  RH  019%=      5-min Rain = 0
KOD1 091937Z 22004KT 26/01 A2972 RMK A01 T02570008  RH  020%=      5-min Rain = 0
KOD1 091938Z 20006KT 26/01 A2972 RMK A01 T02590010  RH  020%=      5-min Rain = 0
KOD1 091939Z 20008KT 26/01 A2972 RMK A01 T02590005  RH  019%=      5-min Rain = 0
KOD1 091940Z 19004KT 26/01 A2972 RMK A01 T02570007  RH  019%=      5-min Rain = 0
KOD1 091941Z 22006KT 26/01 A2972 RMK A01 T02570008  RH  020%=      5-min Rain = 0
KOD1 091942Z 20007KT 26/01 A2972 RMK A01 T02580009  RH  020%=      5-min Rain = 0
KOD1 091943Z 19009KT 26/01 A2971 RMK A01 T02590010  RH  020%=      5-min Rain = 0
KOD1 091944Z 23011KT 26/01 A2971 RMK A01 T02610010  RH  019%=      5-min Rain = 0
KOD1 091945Z 23009KT 26/00 A2971 RMK A01 T02640002  RH  018%=      5-min Rain = 0
KOD1 091946Z 24005KT 26/M00 A2971 RMK A01 T02631001  RH  018%=      5-min Rain = 0
KOD1 091947Z 24007KT 26/00 A2971 RMK A01 T02620002  RH  018%=      5-min Rain = 0
KOD1 091948Z 24006KT 26/01 A2971 RMK A01 T02620005  RH  019%=      5-min Rain = 0
KOD1 091949Z 23006KT 26/01 A2971 RMK A01 T02620007  RH  019%=      5-min Rain = 0
KOD1 091950Z 21005KT 26/01 A2971 RMK A01 T02630008  RH  019%=      5-min Rain = 0
KOD1 091951Z 23004KT 26/01 A2971 RMK A01 T02640008  RH  019%=      5-min Rain = 0
KOD1 091952Z 21004KT 26/01 A2971 RMK A01 T02640006  RH  019%=      5-min Rain = 0
KOD1 091953Z 21008G13KT 27/01 A2971 RMK A01 T02650010  RH  019%=      5-min Rain = 0
KOD1 091954Z 21007KT 27/00 A2971 RMK A01 T026500-0  RH  018%=      5-min Rain = 0
KOD1 091955Z 25007KT 27/00 A2971 RMK A01 T02650003  RH  018%=      5-min Rain = 0
KOD1 091956Z 22007KT 27/01 A2971 RMK A01 T02660006  RH  018%=      5-min Rain = 0
KOD1 091957Z 20009KT 27/00 A2971 RMK A01 T02680002  RH  018%=      5-min Rain = 0
KOD1 091958Z 21005KT 27/00 A2971 RMK A01 T02670002  RH  018%=      5-min Rain = 0
KOD1 091959Z 22011G16KT 27/00 A2971 RMK A01 T02680002  RH  018%=      5-min Rain = 0
KOD1 092000Z 21011KT 27/M00 A2971 RMK A01 T02671003  RH  017%=      5-min Rain = 0
KOD1 092001Z 21009KT 27/M00 A2971 RMK A01 T02661001  RH  017%=      5-min Rain = 0
KOD1 092002Z 21010KT 27/M00 A2971 RMK A01 T02661003  RH  017%=      5-min Rain = 0
KOD1 092003Z 21011KT 27/M00 A2971 RMK A01 T02661001  RH  017%=      5-min Rain = 0
KOD1 092004Z 22012KT 27/M01 A2971 RMK A01 T02681006  RH  017%=      5-min Rain = 0
KOD1 092005Z 22009KT 27/M01 A2971 RMK A01 T02681007  RH  016%=      5-min Rain = 0
KOD1 092006Z 21008KT 27/M01 A2971 RMK A01 T02681005  RH  017%=      5-min Rain = 0
KOD1 092007Z 22006KT 27/00 A2971 RMK A01 T02690000  RH  017%=      5-min Rain = 0
KOD1 092008Z 20007KT 27/M00 A2971 RMK A01 T02681003  RH  017%=      5-min Rain = 0
KOD1 092009Z 19006KT 27/M00 A2971 RMK A01 T02671002  RH  017%=      5-min Rain = 0
KOD1 092010Z 21004KT 27/M01 A2971 RMK A01 T02661006  RH  017%=      5-min Rain = 0
KOD1 092011Z 20003KT 27/M00 A2971 RMK A01 T02651004  RH  017%=      5-min Rain = 0
KOD1 092012Z 21004KT 27/00 A2971 RMK A01 T02670001  RH  018%=      5-min Rain = 0
KOD1 092013Z 21004KT 27/M00 A2971 RMK A01 T02681001  RH  017%=      5-min Rain = 0
KOD1 092014Z 19008KT 27/00 A2971 RMK A01 T02690001  RH  017%=      5-min Rain = 0
KOD1 092015Z 20008KT 27/00 A2971 RMK A01 T026900-0  RH  017%=      5-min Rain = 0
KOD1 092016Z 21008KT 27/00 A2971 RMK A01 T02690001  RH  017%=      5-min Rain = 0
KOD1 092017Z 24009KT 27/00 A2971 RMK A01 T02690001  RH  017%=      5-min Rain = 0
KOD1 092018Z 22008KT 27/00 A2971 RMK A01 T02700003  RH  018%=      5-min Rain = 0
KOD1 092019Z 21008KT 27/M00 A2971 RMK A01 T02711002  RH  017%=      5-min Rain = 0
KOD1 092020Z 21009KT 27/00 A2971 RMK A01 T02700000  RH  017%=      5-min Rain = 0
KOD1 092021Z 23007KT 27/M00 A2971 RMK A01 T02691004  RH  017%=      5-min Rain = 0
KOD1 092022Z 24006KT 27/M00 A2971 RMK A01 T02681001  RH  017%=      5-min Rain = 0
KOD1 092023Z 23008KT 27/00 A2971 RMK A01 T02680002  RH  018%=      5-min Rain = 0
KOD1 092024Z 24007KT 27/00 A2971 RMK A01 T02700001  RH  017%=      5-min Rain = 0
KOD1 092025Z 26005KT 27/00 A2971 RMK A01 T027200-0  RH  017%=      5-min Rain = 0
KOD1 092026Z 30004KT 27/M00 A2971 RMK A01 T02741001  RH  017%=      5-min Rain = 0
KOD1 092027Z 28004KT 28/M01 A2971 RMK A01 T02761008  RH  016%=      5-min Rain = 0
KOD1 092028Z 27003KT 28/M01 A2971 RMK A01 T02761010  RH  015%=      5-min Rain = 0
KOD1 092029Z 20005KT 28/M00 A2971 RMK A01 T02761001  RH  016%=      5-min Rain = 0
KOD1 092030Z 23006KT 28/00 A2971 RMK A01 T02770002  RH  017%=      5-min Rain = 0
KOD1 092031Z 25005KT 28/M01 A2971 RMK A01 T02771009  RH  015%=      5-min Rain = 0
KOD1 092032Z 29005KT 28/M01 A2971 RMK A01 T02751009  RH  016%=      5-min Rain = 0
KOD1 092033Z 31004KT 27/M01 A2971 RMK A01 T02731010  RH  016%=      5-min Rain = 0
KOD1 092034Z 34003KT 27/M01 A2971 RMK A01 T02721008  RH  016%=      5-min Rain = 0
KOD1 092035Z 33004KT 27/M00 A2971 RMK A01 T02721003  RH  017%=      5-min Rain = 0
KOD1 092036Z 33005KT 27/M01 A297 RMK A01 T02731007  RH  016%=      5-min Rain = 0
KOD1 092037Z 33004KT 27/M01 A297 RMK A01 T02731010  RH  016%=      5-min Rain = 0
KOD1 092038Z 35002KT 27/M01 A297 RMK A01 T02741009  RH  016%=      5-min Rain = 0
KOD1 092039Z 00006KT 27/M01 A297 RMK A01 T02741006  RH  016%=      5-min Rain = 0
KOD1 092040Z 01004KT 28/M01 A297 RMK A01 T02761008  RH  016%=      5-min Rain = 0
KOD1 092041Z 21002KT 28/M01 A297 RMK A01 T02791007  RH  016%=      5-min Rain = 0
KOD1 092042Z 19006KT 28/M02 A297 RMK A01 T02791021  RH  014%=      5-min Rain = 0
KOD1 092043Z 21009KT 28/M02 A297 RMK A01 T02771020  RH  014%=      5-min Rain = 0
KOD1 092044Z 26010KT 28/M02 A297 RMK A01 T02761017  RH  015%=      5-min Rain = 0
KOD1 092045Z 25007KT 28/M02 A297 RMK A01 T02761015  RH  015%=      5-min Rain = 0
KOD1 092046Z 23008KT 28/M02 A297 RMK A01 T02781019  RH  014%=      5-min Rain = 0
KOD1 092047Z 23006KT 28/M03 A297 RMK A01 T02781025  RH  014%=      5-min Rain = 0
KOD1 092048Z 24007KT 28/M02 A297 RMK A01 T02771021  RH  014%=      5-min Rain = 0
KOD1 092049Z 24006KT 28/M02 A297 RMK A01 T02771023  RH  014%=      5-min Rain = 0
KOD1 092050Z 24006KT 28/M02 A297 RMK A01 T02771021  RH  014%=      5-min Rain = 0
KOD1 092051Z 26006KT 28/M03 A297 RMK A01 T02771025  RH  014%=      5-min Rain = 0
KOD1 092052Z 26006KT 28/M02 A297 RMK A01 T02781024  RH  014%=      5-min Rain = 0
KOD1 092053Z 26006KT 28/M03 A297 RMK A01 T02781025  RH  014%=      5-min Rain = 0
KOD1 092054Z 25005KT 28/M02 A297 RMK A01 T02781022  RH  014%=      5-min Rain = 0
KOD1 092055Z 22004KT 28/M02 A297 RMK A01 T02791022  RH  014%=      5-min Rain = 0
KOD1 092056Z 21003KT 28/M02 A2969 RMK A01 T02801023  RH  014%=      5-min Rain = 0
KOD1 092057Z 19002KT 28/M03 A2969 RMK A01 T02801025  RH  013%=      5-min Rain = 0
KOD1 092058Z 28003KT 28/M02 A2969 RMK A01 T02801023  RH  014%=      5-min Rain = 0
KOD1 092059Z 28003KT 28/M02 A2969 RMK A01 T02821020  RH  014%=      5-min Rain = 0
KOD1 092100Z 31003KT 28/M03 A2969 RMK A01 T02831028  RH  013%=      5-min Rain = 0
KOD1 092101Z 29004KT 28/M03 A2969 RMK A01 T02821028  RH  013%=      5-min Rain = 0
KOD1 092102Z 32008KT 28/M03 A2969 RMK A01 T02831032  RH  013%=      5-min Rain = 0
KOD1 092103Z 32007KT 28/M03 A2969 RMK A01 T02831032  RH  013%=      5-min Rain = 0
KOD1 092104Z 32008KT 28/M04 A2969 RMK A01 T02831035  RH  012%=      5-min Rain = 0
KOD1 092105Z 32008KT 28/M04 A2969 RMK A01 T02811037  RH  012%=      5-min Rain = 0
KOD1 092106Z 30008KT 28/M04 A2969 RMK A01 T02791038  RH  012%=      5-min Rain = 0
KOD1 092107Z 31007KT 28/M04 A2969 RMK A01 T02781038  RH  012%=      5-min Rain = 0
KOD1 092108Z 33011KT 28/M04 A2969 RMK A01 T02771036  RH  013%=      5-min Rain = 0
KOD1 092109Z 33009KT 28/M04 A2969 RMK A01 T02761040  RH  012%=      5-min Rain = 0
KOD1 092110Z 35009KT 28/M04 A2969 RMK A01 T02751039  RH  012%=      5-min Rain = 0
KOD1 092111Z 35007KT 27/M04 A2969 RMK A01 T02731040  RH  013%=      5-min Rain = 0
KOD1 092112Z 34008KT 27/M04 A2969 RMK A01 T02721040  RH  013%=      5-min Rain = 0
KOD1 092113Z 33010KT 27/M04 A2969 RMK A01 T02731036  RH  013%=      5-min Rain = 0
KOD1 092114Z 32007KT 27/M04 A2969 RMK A01 T02741041  RH  012%=      5-min Rain = 0
KOD1 092115Z 34005G10KT 27/M04 A2969 RMK A01 T02741037  RH  013%=      5-min Rain = 0
KOD1 092116Z 34010KT 27/M04 A2969 RMK A01 T02741041  RH  012%=      5-min Rain = 0
KOD1 092117Z 34008KT 27/M04 A2969 RMK A01 T02731041  RH  012%=      5-min Rain = 0
KOD1 092118Z 34008KT 27/M04 A2969 RMK A01 T02721039  RH  013%=      5-min Rain = 0
KOD1 092119Z 35007KT 27/M04 A2969 RMK A01 T02731040  RH  013%=      5-min Rain = 0
KOD1 092120Z 35007KT 27/M04 A2969 RMK A01 T02741041  RH  012%=      5-min Rain = 0
KOD1 092121Z 34006KT 27/M04 A2969 RMK A01 T02741040  RH  012%=      5-min Rain = 0
KOD1 092122Z 33006KT 28/M04 A2969 RMK A01 T02751041  RH  012%=      5-min Rain = 0
KOD1 092123Z 33007KT 28/M04 A2969 RMK A01 T02751041  RH  012%=      5-min Rain = 0
KOD1 092124Z 32009KT 27/M04 A2969 RMK A01 T02741042  RH  012%=      5-min Rain = 0
KOD1 092125Z 32005KT 27/M04 A2969 RMK A01 T02731042  RH  012%=      5-min Rain = 0
KOD1 092126Z 34006KT 27/M04 A2969 RMK A01 T02741038  RH  013%=      5-min Rain = 0
KOD1 092127Z 35011KT 28/M04 A2969 RMK A01 T02761040  RH  012%=      5-min Rain = 0
KOD1 092128Z 34009KT 28/M04 A2969 RMK A01 T02751040  RH  012%=      5-min Rain = 0
KOD1 092129Z 32009KT 27/M04 A2969 RMK A01 T02741042  RH  012%=      5-min Rain = 0
KOD1 092130Z 32008KT 27/M04 A2969 RMK A01 T02731043  RH  012%=      5-min Rain = 0
KOD1 092131Z 31008KT 27/M04 A2969 RMK A01 T02741038  RH  013%=      5-min Rain = 0
KOD1 092132Z 34009KT 28/M04 A2969 RMK A01 T02761041  RH  012%=      5-min Rain = 0
KOD1 092133Z 35009KT 28/M04 A2969 RMK A01 T02751039  RH  012%=      5-min Rain = 0
KOD1 092134Z 33008KT 28/M04 A2969 RMK A01 T02761038  RH  012%=      5-min Rain = 0
KOD1 092135Z 33009KT 28/M04 A2969 RMK A01 T02771039  RH  012%=      5-min Rain = 0
KOD1 092136Z 33007KT 28/M04 A2969 RMK A01 T02771040  RH  012%=      5-min Rain = 0
KOD1 092137Z 33008KT 28/M04 A2969 RMK A01 T02771042  RH  012%=      5-min Rain = 0
KOD1 092138Z 32008KT 28/M04 A2969 RMK A01 T02761039  RH  012%=      5-min Rain = 0
KOD1 092139Z 31009KT 28/M04 A2969 RMK A01 T02771041  RH  012%=      5-min Rain = 0
KOD1 092140Z 31009KT 28/M04 A2969 RMK A01 T02771043  RH  012%=      5-min Rain = 0
KOD1 092141Z 30007KT 28/M04 A2969 RMK A01 T02751042  RH  012%=      5-min Rain = 0
KOD1 092142Z 32006KT 28/M04 A2969 RMK A01 T02751040  RH  012%=      5-min Rain = 0
KOD1 092143Z 34005KT 28/M04 A2969 RMK A01 T02751044  RH  012%=      5-min Rain = 0
KOD1 092144Z 33007KT 27/M04 A2969 RMK A01 T02741044  RH  012%=      5-min Rain = 0
KOD1 092145Z 35006KT 27/M04 A2969 RMK A01 T02721043  RH  012%=      5-min Rain = 0
KOD1 092146Z 35007KT 27/M04 A2969 RMK A01 T02721042  RH  012%=      5-min Rain = 0
KOD1 092147Z 34010KT 27/M04 A2969 RMK A01 T02731041  RH  012%=      5-min Rain = 0
KOD1 092148Z 33009KT 27/M04 A2969 RMK A01 T02721043  RH  012%=      5-min Rain = 0
KOD1 092149Z 34008KT 27/M04 A2969 RMK A01 T02721041  RH  012%=      5-min Rain = 0
KOD1 092150Z 35006KT 27/M04 A2969 RMK A01 T02721043  RH  012%=      5-min Rain = 0
KOD1 092151Z 35006KT 27/M04 A2969 RMK A01 T02721042  RH  012%=      5-min Rain = 0
KOD1 092152Z 33009KT 27/M04 A2969 RMK A01 T02721044  RH  012%=      5-min Rain = 0
KOD1 092153Z 32010KT 27/M04 A2969 RMK A01 T02721042  RH  012%=      5-min Rain = 0
KOD1 092154Z 33010KT 27/M04 A297 RMK A01 T02721041  RH  013%=      5-min Rain = 0
KOD1 092155Z 32009KT 27/M04 A297 RMK A01 T02721041  RH  012%=      5-min Rain = 0
KOD1 092156Z 34009KT 27/M04 A297 RMK A01 T02721040  RH  013%=      5-min Rain = 0
KOD1 092157Z 36008KT 27/M04 A297 RMK A01 T02721042  RH  012%=      5-min Rain = 0
KOD1 092158Z 34008KT 27/M04 A297 RMK A01 T02711042  RH  012%=      5-min Rain = 0
KOD1 092159Z 34010KT 27/M04 A297 RMK A01 T02711042  RH  013%=      5-min Rain = 0
KOD1 092200Z 33008KT 27/M04 A297 RMK A01 T02711043  RH  012%=      5-min Rain = 0
KOD1 092201Z 33009KT 27/M04 A297 RMK A01 T02711041  RH  013%=      5-min Rain = 0
KOD1 092202Z 35010KT 27/M04 A297 RMK A01 T02711038  RH  013%=      5-min Rain = 0
KOD1 092203Z 36010KT 27/M04 A297 RMK A01 T02711039  RH  013%=      5-min Rain = 0
KOD1 092204Z 36010KT 27/M04 A297 RMK A01 T02701041  RH  013%=      5-min Rain = 0
KOD1 092205Z 00008KT 27/M04 A297 RMK A01 T02691039  RH  013%=      5-min Rain = 0
KOD1 092206Z 00008KT 27/M04 A297 RMK A01 T02701039  RH  013%=      5-min Rain = 0
KOD1 092207Z 35010KT 27/M04 A297 RMK A01 T02701038  RH  013%=      5-min Rain = 0
KOD1 092208Z 35010KT 27/M04 A297 RMK A01 T02691038  RH  013%=      5-min Rain = 0
KOD1 092209Z 36011KT 27/M04 A297 RMK A01 T02691041  RH  013%=      5-min Rain = 0
KOD1 092210Z 36010KT 27/M04 A297 RMK A01 T02681040  RH  013%=      5-min Rain = 0
KOD1 092211Z 35010KT 27/M04 A297 RMK A01 T02671042  RH  013%=      5-min Rain = 0
KOD1 092212Z 34010KT 27/M04 A297 RMK A01 T02671041  RH  013%=      5-min Rain = 0
KOD1 092213Z 34009KT 27/M04 A297 RMK A01 T02671043  RH  013%=      5-min Rain = 0
KOD1 092214Z 35008KT 27/M05 A297 RMK A01 T02661045  RH  013%=      5-min Rain = 0
KOD1 092215Z 35010KT 27/M05 A297 RMK A01 T02651046  RH  013%=      5-min Rain = 0
KOD1 092216Z 35010KT 26/M05 A297 RMK A01 T02631045  RH  013%=      5-min Rain = 0
KOD1 092217Z 34008KT 26/M05 A297 RMK A01 T02631046  RH  013%=      5-min Rain = 0
KOD1 092218Z 33009KT 26/M04 A297 RMK A01 T02631043  RH  013%=      5-min Rain = 0
KOD1 092219Z 32009KT 26/M04 A297 RMK A01 T02631043  RH  013%=      5-min Rain = 0
KOD1 092220Z 32009KT 26/M04 A297 RMK A01 T02631044  RH  013%=      5-min Rain = 0
KOD1 092221Z 33008KT 26/M04 A297 RMK A01 T02631044  RH  013%=      5-min Rain = 0
KOD1 092222Z 34007KT 26/M04 A297 RMK A01 T02641044  RH  013%=      5-min Rain = 0
KOD1 092223Z 33010KT 26/M04 A297 RMK A01 T02631044  RH  013%=      5-min Rain = 0
KOD1 092224Z 33011KT 26/M04 A297 RMK A01 T02631044  RH  013%=      5-min Rain = 0
KOD1 092225Z 32009KT 26/M05 A297 RMK A01 T02621045  RH  013%=      5-min Rain = 0
KOD1 092226Z 32007KT 26/M04 A297 RMK A01 T02611044  RH  013%=      5-min Rain = 0
KOD1 092227Z 32009KT 26/M04 A297 RMK A01 T02601042  RH  013%=      5-min Rain = 0
KOD1 092228Z 32007KT 26/M04 A297 RMK A01 T02611040  RH  013%=      5-min Rain = 0
KOD1 092229Z 32009KT 26/M04 A297 RMK A01 T02611044  RH  013%=      5-min Rain = 0
KOD1 092230Z 33008KT 26/M04 A2971 RMK A01 T02611041  RH  013%=      5-min Rain = 0
KOD1 092231Z 33010KT 26/M04 A2971 RMK A01 T02611044  RH  013%=      5-min Rain = 0
KOD1 092232Z 33009KT 26/M04 A2971 RMK A01 T02601044  RH  013%=      5-min Rain = 0
KOD1 092233Z 33010KT 26/M04 A2971 RMK A01 T02611044  RH  013%=      5-min Rain = 0
KOD1 092234Z 33008KT 26/M04 A2971 RMK A01 T02611044  RH  013%=      5-min Rain = 0
KOD1 092235Z 32009KT 26/M04 A2971 RMK A01 T02621041  RH  013%=      5-min Rain = 0
KOD1 092236Z 33008KT 26/M04 A2971 RMK A01 T02621039  RH  013%=      5-min Rain = 0
KOD1 092237Z 33009KT 26/M04 A2971 RMK A01 T02631041  RH  013%=      5-min Rain = 0
KOD1 092238Z 33009KT 26/M04 A2971 RMK A01 T02621041  RH  013%=      5-min Rain = 0
KOD1 092239Z 34008KT 26/M04 A2971 RMK A01 T02621041  RH  013%=      5-min Rain = 0
KOD1 092240Z 35010KT 26/M04 A2971 RMK A01 T02631036  RH  014%=      5-min Rain = 0
KOD1 092241Z 33012KT 26/M04 A2971 RMK A01 T02631041  RH  013%=      5-min Rain = 0
KOD1 092242Z 34011KT 26/M04 A2971 RMK A01 T02621041  RH  013%=      5-min Rain = 0
KOD1 092243Z 36010KT 26/M04 A2971 RMK A01 T02611038  RH  014%=      5-min Rain = 0
KOD1 092244Z 35011KT 26/M04 A2971 RMK A01 T02621039  RH  014%=      5-min Rain = 0
KOD1 092245Z 35009KT 26/M04 A2971 RMK A01 T02621038  RH  014%=      5-min Rain = 0
KOD1 092246Z 35010KT 26/M04 A2971 RMK A01 T02631037  RH  014%=      5-min Rain = 0
KOD1 092247Z 35010KT 26/M04 A2971 RMK A01 T02641041  RH  013%=      5-min Rain = 0
KOD1 092248Z 36009KT 26/M04 A2971 RMK A01 T02641039  RH  013%=      5-min Rain = 0
KOD1 092249Z 35011KT 27/M04 A2971 RMK A01 T02651040  RH  013%=      5-min Rain = 0
KOD1 092250Z 35010KT 26/M04 A2971 RMK A01 T02641041  RH  013%=      5-min Rain = 0
KOD1 092251Z 36010KT 26/M04 A2971 RMK A01 T02631041  RH  013%=      5-min Rain = 0
KOD1 092252Z 35010KT 26/M04 A2971 RMK A01 T02631041  RH  013%=      5-min Rain = 0
KOD1 092253Z 35010KT 26/M04 A2971 RMK A01 T02621043  RH  013%=      5-min Rain = 0
KOD1 092254Z 33012KT 26/M04 A2971 RMK A01 T02611043  RH  013%=      5-min Rain = 0
KOD1 092255Z 34011KT 26/M05 A2971 RMK A01 T02591046  RH  013%=      5-min Rain = 0
KOD1 092256Z 34011KT 26/M04 A2971 RMK A01 T02581044  RH  013%=      5-min Rain = 0
KOD1 092257Z 34012KT 26/M05 A2971 RMK A01 T02581047  RH  013%=      5-min Rain = 0
KOD1 092258Z 34010KT 26/M04 A2971 RMK A01 T02581044  RH  013%=      5-min Rain = 0
KOD1 092259Z 35009KT 26/M04 A2971 RMK A01 T02581042  RH  013%=      5-min Rain = 0
KOD1 092300Z 35010KT 26/M05 A2971 RMK A01 T02581045  RH  013%=      5-min Rain = 0
KOD1 092301Z 34010KT 26/M05 A2971 RMK A01 T02571048  RH  013%=      5-min Rain = 0
KOD1 092302Z 34008KT 26/M05 A2971 RMK A01 T02561046  RH  013%=      5-min Rain = 0
KOD1 092303Z 34009KT 26/M05 A2971 RMK A01 T02561046  RH  013%=      5-min Rain = 0
KOD1 092304Z 33010KT 26/M05 A2971 RMK A01 T02561047  RH  013%=      5-min Rain = 0
KOD1 092305Z 33009KT 26/M05 A2971 RMK A01 T02551048  RH  013%=      5-min Rain = 0
KOD1 092306Z 33008KT 25/M05 A2971 RMK A01 T02541049  RH  013%=      5-min Rain = 0
KOD1 092307Z 34008KT 25/M05 A2971 RMK A01 T02541048  RH  013%=      5-min Rain = 0
KOD1 092308Z 34008KT 25/M05 A2971 RMK A01 T02531048  RH  013%=      5-min Rain = 0
KOD1 092309Z 35007KT 25/M04 A2971 RMK A01 T02531044  RH  014%=      5-min Rain = 0
KOD1 092310Z 33008KT 25/M04 A2971 RMK A01 T02531044  RH  014%=      5-min Rain = 0
KOD1 092311Z 34008KT 25/M05 A2971 RMK A01 T02531047  RH  013%=      5-min Rain = 0
KOD1 092312Z 35008KT 25/M05 A2971 RMK A01 T02541046  RH  013%=      5-min Rain = 0
KOD1 092313Z 35008KT 25/M05 A2971 RMK A01 T02541047  RH  013%=      5-min Rain = 0
KOD1 092314Z 36006KT 26/M04 A2971 RMK A01 T02551043  RH  014%=      5-min Rain = 0
KOD1 092315Z 35009KT 26/M05 A2971 RMK A01 T02551045  RH  013%=      5-min Rain = 0
KOD1 092316Z 36009KT 26/M05 A2971 RMK A01 T02561045  RH  013%=      5-min Rain = 0
KOD1 092317Z 00010KT 26/M04 A2971 RMK A01 T02571044  RH  013%=      5-min Rain = 0
KOD1 092318Z 36009KT 26/M04 A2971 RMK A01 T02561042  RH  014%=      5-min Rain = 0
KOD1 092319Z 00009KT 26/M04 A2971 RMK A01 T02561042  RH  014%=      5-min Rain = 0
KOD1 092320Z 00008KT 26/M04 A2971 RMK A01 T02551041  RH  014%=      5-min Rain = 0
KOD1 092321Z 01009KT 26/M04 A2971 RMK A01 T02551041  RH  014%=      5-min Rain = 0
KOD1 092322Z 36010KT 25/M04 A2971 RMK A01 T02541040  RH  014%=      5-min Rain = 0
KOD1 092323Z 36011KT 25/M04 A2971 RMK A01 T02531041  RH  014%=      5-min Rain = 0
KOD1 092324Z 35011KT 25/M04 A2971 RMK A01 T02511043  RH  014%=      5-min Rain = 0
KOD1 092325Z 35011KT 25/M04 A2971 RMK A01 T02501041  RH  014%=      5-min Rain = 0
KOD1 092326Z 36012KT 25/M04 A2971 RMK A01 T02491041  RH  014%=      5-min Rain = 0
KOD1 092327Z 36010KT 25/M04 A2971 RMK A01 T02491042  RH  014%=      5-min Rain = 0
KOD1 092328Z 00010KT 25/M04 A2971 RMK A01 T02491039  RH  015%=      5-min Rain = 0
KOD1 092329Z 36011KT 25/M04 A2971 RMK A01 T02481039  RH  015%=      5-min Rain = 0
KOD1 092330Z 36011KT 25/M04 A2971 RMK A01 T02471039  RH  015%=      5-min Rain = 0
KOD1 092331Z 35012KT 25/M04 A2971 RMK A01 T02461042  RH  015%=      5-min Rain = 0
KOD1 092332Z 35010KT 24/M04 A2971 RMK A01 T02441041  RH  015%=      5-min Rain = 0
KOD1 092333Z 35011KT 24/M04 A2971 RMK A01 T02431042  RH  015%=      5-min Rain = 0
KOD1 092334Z 36010KT 24/M04 A2971 RMK A01 T02421039  RH  015%=      5-min Rain = 0
KOD1 092335Z 36010KT 24/M04 A2971 RMK A01 T02401037  RH  016%=      5-min Rain = 0
KOD1 092336Z 36011KT 24/M04 A2971 RMK A01 T02391035  RH  016%=      5-min Rain = 0
KOD1 092337Z 00011KT 24/M03 A2971 RMK A01 T02381034  RH  016%=      5-min Rain = 0
KOD1 092338Z 36011KT 24/M03 A2971 RMK A01 T02371032  RH  017%=      5-min Rain = 0
KOD1 092339Z 00012KT 24/M03 A2971 RMK A01 T02361032  RH  017%=      5-min Rain = 0
KOD1 092340Z 00011KT 24/M03 A2971 RMK A01 T02361032  RH  017%=      5-min Rain = 0
KOD1 092341Z 36011KT 24/M03 A2971 RMK A01 T02351031  RH  017%=      5-min Rain = 0
KOD1 092342Z 36010KT 23/M03 A2971 RMK A01 T02341029  RH  017%=      5-min Rain = 0
KOD1 092343Z 36009KT 23/M03 A2971 RMK A01 T02341027  RH  017%=      5-min Rain = 0
KOD1 092344Z 36009KT 23/M03 A2971 RMK A01 T02321027  RH  018%=      5-min Rain = 0
KOD1 092345Z 36010KT 23/M03 A2971 RMK A01 T02321027  RH  018%=      5-min Rain = 0
KOD1 092346Z 36010KT 23/M03 A2971 RMK A01 T02311027  RH  018%=      5-min Rain = 0
KOD1 092347Z 35009KT 23/M03 A2971 RMK A01 T02301025  RH  018%=      5-min Rain = 0
KOD1 092348Z 35009KT 23/M03 A2971 RMK A01 T02291025  RH  018%=      5-min Rain = 0
KOD1 092349Z 36009KT 23/M02 A2971 RMK A01 T02281024  RH  018%=      5-min Rain = 0
KOD1 092350Z 36009KT 23/M02 A2971 RMK A01 T02271024  RH  019%=      5-min Rain = 0
KOD1 092351Z 00009KT 23/M02 A2971 RMK A01 T02271024  RH  019%=      5-min Rain = 0
KOD1 092352Z 00009KT 23/M02 A2971 RMK A01 T02261024  RH  019%=      5-min Rain = 0
KOD1 092353Z 36009KT 23/M02 A2971 RMK A01 T02251023  RH  019%=      5-min Rain = 0
KOD1 092354Z 00008KT 23/M02 A2971 RMK A01 T02251022  RH  019%=      5-min Rain = 0
KOD1 092355Z 36008KT 22/M02 A2971 RMK A01 T02241021  RH  019%=      5-min Rain = 0
KOD1 092356Z 36008KT 22/M02 A2971 RMK A01 T02231020  RH  020%=      5-min Rain = 0
KOD1 092357Z 00008KT 22/M02 A2971 RMK A01 T02221019  RH  020%=      5-min Rain = 0
KOD1 092358Z 00008KT 22/M02 A2971 RMK A01 T02211019  RH  020%=      5-min Rain = 0
KOD1 092359Z 01008KT 22/M02 A2971 RMK A01 T02211018  RH  020%=      5-min Rain = 0
KOD1 100000Z 01008KT 22/M02 A2971 RMK A01 T02201018  RH  020%=      5-min Rain = 0
KOD1 100001Z 01008KT 22/M02 A2972 RMK A01 T02191019  RH  020%=      5-min Rain = 0
KOD1 100002Z 01007KT 22/M02 A2972 RMK A01 T02181017  RH  021%=      5-min Rain = 0
KOD1 100003Z 01008KT 22/M02 A2971 RMK A01 T02181017  RH  021%=      5-min Rain = 0
KOD1 100004Z 01008KT 22/M02 A2971 RMK A01 T02171017  RH  021%=      5-min Rain = 0
KOD1 100005Z 01008KT 22/M02 A2971 RMK A01 T02161017  RH  021%=      5-min Rain = 0
KOD1 100006Z 01008KT 22/M02 A2972 RMK A01 T02161016  RH  021%=      5-min Rain = 0
KOD1 100007Z 01008KT 22/M02 A2972 RMK A01 T02151016  RH  021%=      5-min Rain = 0
KOD1 100008Z 01008KT 21/M02 A2972 RMK A01 T02141015  RH  021%=      5-min Rain = 0
KOD1 100009Z 01008KT 21/M02 A2972 RMK A01 T02131015  RH  022%=      5-min Rain = 0
KOD1 100010Z 01008KT 21/M02 A2972 RMK A01 T02131015  RH  022%=      5-min Rain = 0
KOD1 100011Z 01008KT 21/M02 A2972 RMK A01 T02121015  RH  022%=      5-min Rain = 0
KOD1 100012Z 01008KT 21/M02 A2972 RMK A01 T02121015  RH  022%=      5-min Rain = 0
KOD1 100013Z 01008KT 21/M01 A2972 RMK A01 T02111014  RH  022%=      5-min Rain = 0
KOD1 100014Z 01008KT 21/M01 A2972 RMK A01 T02101013  RH  022%=      5-min Rain = 0
KOD1 100015Z 01008KT 21/M01 A2972 RMK A01 T02091012  RH  023%=      5-min Rain = 0
KOD1 100016Z 01008KT 21/M01 A2972 RMK A01 T02081011  RH  023%=      5-min Rain = 0
KOD1 100017Z 01008KT 21/M01 A2972 RMK A01 T02061011  RH  023%=      5-min Rain = 0
KOD1 100018Z 01008KT 21/M01 A2972 RMK A01 T02051010  RH  024%=      5-min Rain = 0
KOD1 100019Z 01008KT 20/M01 A2972 RMK A01 T02031010  RH  024%=      5-min Rain = 0
KOD1 100020Z 01009KT 20/M01 A2972 RMK A01 T02021010  RH  024%=      5-min Rain = 0
KOD1 100021Z 01009KT 20/M01 A2972 RMK A01 T02011010  RH  024%=      5-min Rain = 0
KOD1 100022Z 01008KT 20/M01 A2972 RMK A01 T02001011  RH  024%=      5-min Rain = 0
KOD1 100023Z 01009KT 20/M01 A2972 RMK A01 T01991011  RH  024%=      5-min Rain = 0
KOD1 100024Z 01009KT 20/M01 A2972 RMK A01 T01981011  RH  025%=      5-min Rain = 0
KOD1 100025Z 01009KT 20/M01 A2972 RMK A01 T01971011  RH  025%=      5-min Rain = 0
KOD1 100026Z 01009KT 20/M01 A2972 RMK A01 T01971011  RH  025%=      5-min Rain = 0
KOD1 100027Z 01009KT 20/M01 A2972 RMK A01 T01961011  RH  025%=      5-min Rain = 0
KOD1 100028Z 01009KT 20/M01 A2972 RMK A01 T01951010  RH  025%=      5-min Rain = 0
KOD1 100029Z 01009KT 19/M01 A2972 RMK A01 T01941010  RH  025%=      5-min Rain = 0
KOD1 100030Z 01009KT 19/M01 A2972 RMK A01 T01931010  RH  025%=      5-min Rain = 0
KOD1 100031Z 01009KT 19/M01 A2972 RMK A01 T01921010  RH  026%=      5-min Rain = 0
KOD1 100032Z 01009KT 19/M01 A2972 RMK A01 T01911010  RH  026%=      5-min Rain = 0
KOD1 100033Z 01009KT 19/M01 A2972 RMK A01 T01911009  RH  026%=      5-min Rain = 0
KOD1 100034Z 01009KT 19/M01 A2972 RMK A01 T01901009  RH  026%=      5-min Rain = 0
KOD1 100035Z 01009KT 19/M01 A2972 RMK A01 T01901008  RH  026%=      5-min Rain = 0
KOD1 100036Z 01009KT 19/M01 A2972 RMK A01 T01891008  RH  026%=      5-min Rain = 0
KOD1 100037Z 01009KT 19/M01 A2972 RMK A01 T01881008  RH  027%=      5-min Rain = 0
KOD1 100038Z 01009KT 19/M01 A2972 RMK A01 T01871007  RH  027%=      5-min Rain = 0
KOD1 100039Z 01009KT 19/M01 A2972 RMK A01 T01871007  RH  027%=      5-min Rain = 0
KOD1 100040Z 01009KT 19/M01 A2972 RMK A01 T01861007  RH  027%=      5-min Rain = 0
KOD1 100041Z 01009KT 19/M01 A2972 RMK A01 T01851007  RH  027%=      5-min Rain = 0
KOD1 100042Z 01009KT 18/M01 A2972 RMK A01 T01841006  RH  027%=      5-min Rain = 0
KOD1 100043Z 01009KT 18/M01 A2972 RMK A01 T01841006  RH  028%=      5-min Rain = 0
KOD1 100044Z 01009KT 18/M01 A2972 RMK A01 T01841006  RH  028%=      5-min Rain = 0
KOD1 100045Z 01009KT 18/M01 A2972 RMK A01 T01831005  RH  028%=      5-min Rain = 0
KOD1 100046Z 01009KT 18/M01 A2972 RMK A01 T01831005  RH  028%=      5-min Rain = 0
KOD1 100047Z 01009KT 18/M00 A2972 RMK A01 T01821004  RH  028%=      5-min Rain = 0
KOD1 100048Z 00009KT 18/M00 A2972 RMK A01 T01811004  RH  029%=      5-min Rain = 0
KOD1 100049Z 00008KT 18/M00 A2972 RMK A01 T01801004  RH  029%=      5-min Rain = 0
KOD1 100050Z 01008KT 18/M00 A2972 RMK A01 T01791004  RH  029%=      5-min Rain = 0
KOD1 100051Z 01008KT 18/M00 A2972 RMK A01 T01781004  RH  029%=      5-min Rain = 0
KOD1 100052Z 01008KT 18/M01 A2972 RMK A01 T01771005  RH  029%=      5-min Rain = 0
KOD1 100053Z 01008KT 18/M01 A2973 RMK A01 T01761005  RH  029%=      5-min Rain = 0
KOD1 100054Z 01008KT 18/M01 A2972 RMK A01 T01751005  RH  030%=      5-min Rain = 0
KOD1 100055Z 01008KT 17/M01 A2972 RMK A01 T01741005  RH  030%=      5-min Rain = 0
KOD1 100056Z 00008KT 17/M01 A2972 RMK A01 T01741005  RH  030%=      5-min Rain = 0
KOD1 100057Z 00008KT 17/M01 A2972 RMK A01 T01741005  RH  030%=      5-min Rain = 0
KOD1 100058Z 00008KT 17/M01 A2972 RMK A01 T01741005  RH  030%=      5-min Rain = 0
KOD1 100059Z 00008KT 17/M01 A2973 RMK A01 T01731005  RH  030%=      5-min Rain = 0
KOD1 100100Z 01008KT 17/M01 A2973 RMK A01 T01731005  RH  030%=      5-min Rain = 0
KOD1 100101Z 01008KT 17/M01 A2973 RMK A01 T01721005  RH  030%=      5-min Rain = 0
KOD1 100102Z 01008KT 17/M01 A2973 RMK A01 T01711006  RH  030%=      5-min Rain = 0
KOD1 100103Z 01008KT 17/M01 A2973 RMK A01 T01701006  RH  030%=      5-min Rain = 0
KOD1 100104Z 01008KT 17/M01 A2973 RMK A01 T01691006  RH  030%=      5-min Rain = 0
KOD1 100105Z 01008KT 17/M01 A2973 RMK A01 T01691006  RH  030%=      5-min Rain = 0
KOD1 100106Z 01008KT 17/M01 A2973 RMK A01 T01691007  RH  030%=      5-min Rain = 0
KOD1 100107Z 01008KT 17/M01 A2973 RMK A01 T01691007  RH  030%=      5-min Rain = 0
KOD1 100108Z 01008KT 17/M01 A2973 RMK A01 T01691007  RH  030%=      5-min Rain = 0
KOD1 100109Z 01008KT 17/M01 A2973 RMK A01 T01691007  RH  030%=      5-min Rain = 0
KOD1 100110Z 01008KT 17/M01 A2973 RMK A01 T01691006  RH  030%=      5-min Rain = 0
KOD1 100111Z 01008KT 17/M01 A2973 RMK A01 T01681006  RH  031%=      5-min Rain = 0
KOD1 100112Z 01008KT 17/M01 A2973 RMK A01 T01671006  RH  031%=      5-min Rain = 0
KOD1 100113Z 01008KT 17/M01 A2973 RMK A01 T01661006  RH  031%=      5-min Rain = 0
KOD1 100114Z 00008KT 17/M01 A2973 RMK A01 T01651006  RH  031%=      5-min Rain = 0
KOD1 100115Z 00008KT 16/M01 A2973 RMK A01 T01631006  RH  032%=      5-min Rain = 0
KOD1 100116Z 00008KT 16/M01 A2973 RMK A01 T01621005  RH  032%=      5-min Rain = 0
KOD1 100117Z 00008KT 16/M01 A2973 RMK A01 T01621005  RH  032%=      5-min Rain = 0
KOD1 100118Z 00008KT 16/M01 A2973 RMK A01 T01611005  RH  032%=      5-min Rain = 0
KOD1 100119Z 00007KT 16/M01 A2973 RMK A01 T01601005  RH  032%=      5-min Rain = 0
KOD1 100120Z 00007KT 16/M01 A2973 RMK A01 T01601005  RH  032%=      5-min Rain = 0
KOD1 100121Z 00007KT 16/M01 A2973 RMK A01 T01591006  RH  032%=      5-min Rain = 0
KOD1 100122Z 01007KT 16/M01 A2973 RMK A01 T01591006  RH  032%=      5-min Rain = 0
KOD1 100123Z 01008KT 16/M01 A2973 RMK A01 T01581006  RH  033%=      5-min Rain = 0
KOD1 100124Z 01008KT 16/M01 A2973 RMK A01 T01571006  RH  033%=      5-min Rain = 0
KOD1 100125Z 01008KT 16/M01 A2973 RMK A01 T01551007  RH  033%=      5-min Rain = 0
KOD1 100126Z 01009KT 16/M01 A2973 RMK A01 T01551007  RH  033%=      5-min Rain = 0
KOD1 100127Z 01009KT 16/M01 A2973 RMK A01 T01551007  RH  033%=      5-min Rain = 0
KOD1 100128Z 01009KT 16/M01 A2973 RMK A01 T01551007  RH  033%=      5-min Rain = 0
KOD1 100129Z 01009KT 16/M01 A2973 RMK A01 T01561007  RH  033%=      5-min Rain = 0
KOD1 100130Z 00009KT 16/M01 A2973 RMK A01 T01561007  RH  033%=      5-min Rain = 0
KOD1 100131Z 00009KT 16/M01 A2973 RMK A01 T01561007  RH  033%=      5-min Rain = 0
KOD1 100132Z 00009KT 16/M01 A2973 RMK A01 T01561007  RH  033%=      5-min Rain = 0
KOD1 100133Z 00009KT 16/M01 A2973 RMK A01 T01561006  RH  033%=      5-min Rain = 0
KOD1 100134Z 00009KT 16/M01 A2973 RMK A01 T01551006  RH  033%=      5-min Rain = 0
KOD1 100135Z 36009KT 15/M01 A2973 RMK A01 T01541006  RH  033%=      5-min Rain = 0
KOD1 100136Z 00009KT 15/M01 A2973 RMK A01 T01541005  RH  034%=      5-min Rain = 0
KOD1 100137Z 36009KT 15/M01 A2973 RMK A01 T01531005  RH  034%=      5-min Rain = 0
KOD1 100138Z 00009KT 15/M01 A2974 RMK A01 T01531005  RH  034%=      5-min Rain = 0
KOD1 100139Z 00009KT 15/M01 A2974 RMK A01 T01521005  RH  034%=      5-min Rain = 0
KOD1 100140Z 00009KT 15/M01 A2974 RMK A01 T01511005  RH  034%=      5-min Rain = 0
KOD1 100141Z 00009KT 15/M01 A2974 RMK A01 T01511005  RH  034%=      5-min Rain = 0
KOD1 100142Z 00009KT 15/M01 A2974 RMK A01 T01511006  RH  034%=      5-min Rain = 0
KOD1 100143Z 00009KT 15/M01 A2974 RMK A01 T01501006  RH  034%=      5-min Rain = 0
KOD1 100144Z 01009KT 15/M01 A2974 RMK A01 T01501006  RH  034%=      5-min Rain = 0
KOD1 100145Z 00009KT 15/M01 A2974 RMK A01 T01511007  RH  034%=      5-min Rain = 0
KOD1 100146Z 00008KT 15/M01 A2974 RMK A01 T01511007  RH  034%=      5-min Rain = 0
KOD1 100147Z 00008KT 15/M01 A2974 RMK A01 T01511006  RH  034%=      5-min Rain = 0
KOD1 100148Z 00008KT 15/M01 A2974 RMK A01 T01511006  RH  034%=      5-min Rain = 0
KOD1 100149Z 00008KT 15/M01 A2974 RMK A01 T01501006  RH  034%=      5-min Rain = 0
KOD1 100150Z 01008KT 15/M01 A2974 RMK A01 T01501006  RH  034%=      5-min Rain = 0
KOD1 100151Z 01008KT 15/M01 A2974 RMK A01 T01491006  RH  034%=      5-min Rain = 0
KOD1 100152Z 01009KT 15/M01 A2974 RMK A01 T01491007  RH  034%=      5-min Rain = 0
KOD1 100153Z 01009KT 15/M01 A2974 RMK A01 T01491007  RH  034%=      5-min Rain = 0
KOD1 100154Z 01009KT 15/M01 A2974 RMK A01 T01501008  RH  034%=      5-min Rain = 0
KOD1 100155Z 01009KT 15/M01 A2974 RMK A01 T01511008  RH  034%=      5-min Rain = 0
KOD1 100156Z 01009KT 15/M01 A2974 RMK A01 T01511008  RH  033%=      5-min Rain = 0
KOD1 100157Z 01009KT 15/M01 A2974 RMK A01 T01521008  RH  034%=      5-min Rain = 0
KOD1 100158Z 01009KT 15/M01 A2974 RMK A01 T01521007  RH  034%=      5-min Rain = 0
KOD1 100159Z 01010KT 15/M01 A2974 RMK A01 T01521007  RH  034%=      5-min Rain = 0
KOD1 100200Z 01009KT 15/M01 A2975 RMK A01 T01531007  RH  033%=      5-min Rain = 0
KOD1 100201Z 01009KT 15/M01 A2975 RMK A01 T01541007  RH  033%=      5-min Rain = 0
KOD1 100202Z 01009KT 16/M01 A2975 RMK A01 T01551007  RH  033%=      5-min Rain = 0
KOD1 100203Z 01009KT 16/M01 A2975 RMK A01 T01561007  RH  033%=      5-min Rain = 0
KOD1 100204Z 01009KT 16/M01 A2975 RMK A01 T01571007  RH  032%=      5-min Rain = 0
KOD1 100205Z 01009KT 16/M01 A2975 RMK A01 T01591007  RH  032%=      5-min Rain = 0
KOD1 100206Z 01009KT 16/M01 A2975 RMK A01 T01591007  RH  032%=      5-min Rain = 0
KOD1 100207Z 01008KT 16/M01 A2975 RMK A01 T01601007  RH  032%=      5-min Rain = 0
KOD1 100208Z 01009KT 16/M01 A2975 RMK A01 T01611007  RH  032%=      5-min Rain = 0
KOD1 100209Z 01009KT 16/M01 A2975 RMK A01 T01611007  RH  032%=      5-min Rain = 0
KOD1 100210Z 01008KT 16/M01 A2975 RMK A01 T01611007  RH  032%=      5-min Rain = 0
KOD1 100211Z 02008KT 16/M01 A2975 RMK A01 T01611008  RH  032%=      5-min Rain = 0
KOD1 100212Z 02009KT 16/M01 A2975 RMK A01 T01611008  RH  032%=      5-min Rain = 0
KOD1 100213Z 02009KT 16/M01 A2975 RMK A01 T01611008  RH  031%=      5-min Rain = 0
KOD1 100214Z 01009KT 16/M01 A2975 RMK A01 T01611008  RH  031%=      5-min Rain = 0
KOD1 100215Z 01009KT 16/M01 A2975 RMK A01 T01611008  RH  032%=      5-min Rain = 0
KOD1 100216Z 01009KT 16/M01 A2975 RMK A01 T01611008  RH  031%=      5-min Rain = 0
KOD1 100217Z 01010KT 16/M01 A2975 RMK A01 T01611008  RH  031%=      5-min Rain = 0
KOD1 100218Z 01009KT 16/M01 A2975 RMK A01 T01621008  RH  031%=      5-min Rain = 0
KOD1 100219Z 01009KT 16/M01 A2975 RMK A01 T01621008  RH  031%=      5-min Rain = 0
KOD1 100220Z 02010KT 16/M01 A2975 RMK A01 T01621008  RH  031%=      5-min Rain = 0
KOD1 100221Z 01010KT 16/M01 A2975 RMK A01 T01621008  RH  031%=      5-min Rain = 0
KOD1 100222Z 01009KT 16/M01 A2975 RMK A01 T01611008  RH  032%=      5-min Rain = 0
KOD1 100223Z 01009KT 16/M01 A2975 RMK A01 T01611008  RH  032%=      5-min Rain = 0
KOD1 100224Z 01009KT 16/M01 A2975 RMK A01 T01611008  RH  032%=      5-min Rain = 0
KOD1 100225Z 01009KT 16/M01 A2975 RMK A01 T01601008  RH  032%=      5-min Rain = 0
KOD1 100226Z 02009KT 16/M01 A2975 RMK A01 T01601008  RH  032%=      5-min Rain = 0
KOD1 100227Z 02009KT 16/M01 A2975 RMK A01 T01601008  RH  032%=      5-min Rain = 0
KOD1 100228Z 02009KT 16/M01 A2975 RMK A01 T01591007  RH  032%=      5-min Rain = 0
KOD1 100229Z 01009KT 16/M01 A2975 RMK A01 T01581007  RH  032%=      5-min Rain = 0
KOD1 100230Z 01009KT 16/M01 A2975 RMK A01 T01581007  RH  032%=      5-min Rain = 0
KOD1 100231Z 02009KT 16/M01 A2975 RMK A01 T01571007  RH  032%=      5-min Rain = 0
KOD1 100232Z 01008KT 16/M01 A2975 RMK A01 T01571007  RH  033%=      5-min Rain = 0
KOD1 100233Z 02008KT 16/M01 A2975 RMK A01 T01561007  RH  033%=      5-min Rain = 0
KOD1 100234Z 02008KT 16/M01 A2975 RMK A01 T01561007  RH  033%=      5-min Rain = 0
KOD1 100235Z 02008KT 16/M01 A2975 RMK A01 T01551007  RH  033%=      5-min Rain = 0
KOD1 100236Z 02008KT 16/M01 A2976 RMK A01 T01551007  RH  033%=      5-min Rain = 0
KOD1 100237Z 02008KT 15/M01 A2976 RMK A01 T01541007  RH  033%=      5-min Rain = 0
KOD1 100238Z 02008KT 15/M01 A2976 RMK A01 T01541007  RH  033%=      5-min Rain = 0
KOD1 100239Z 01008KT 15/M01 A2976 RMK A01 T01531007  RH  033%=      5-min Rain = 0
KOD1 100240Z 01008KT 15/M01 A2976 RMK A01 T01521007  RH  034%=      5-min Rain = 0
KOD1 100241Z 01008KT 15/M01 A2976 RMK A01 T01521007  RH  034%=      5-min Rain = 0
KOD1 100242Z 01008KT 15/M01 A2976 RMK A01 T01521006  RH  034%=      5-min Rain = 0
KOD1 100243Z 01009KT 15/M01 A2976 RMK A01 T01521005  RH  034%=      5-min Rain = 0
KOD1 100244Z 01009KT 15/M00 A2976 RMK A01 T01511004  RH  035%=      5-min Rain = 0
KOD1 100245Z 01009KT 15/M00 A2976 RMK A01 T01491003  RH  035%=      5-min Rain = 0
KOD1 100246Z 01009KT 15/M00 A2976 RMK A01 T01481002  RH  036%=      5-min Rain = 0
KOD1 100247Z 01009KT 15/M00 A2975 RMK A01 T01471002  RH  036%=      5-min Rain = 0
KOD1 100248Z 01009KT 15/M00 A2975 RMK A01 T01461001  RH  037%=      5-min Rain = 0
KOD1 100249Z 01009KT 15/00 A2975 RMK A01 T014500-0  RH  037%=      5-min Rain = 0
KOD1 100250Z 01009KT 14/00 A2975 RMK A01 T014400-0  RH  037%=      5-min Rain = 0
KOD1 100251Z 01009KT 14/00 A2976 RMK A01 T014300-0  RH  037%=      5-min Rain = 0
KOD1 100252Z 01009KT 14/00 A2976 RMK A01 T01430000  RH  038%=      5-min Rain = 0
KOD1 100253Z 01009KT 14/00 A2976 RMK A01 T01430001  RH  038%=      5-min Rain = 0
KOD1 100254Z 01009KT 14/00 A2976 RMK A01 T01430001  RH  038%=      5-min Rain = 0
KOD1 100255Z 02008KT 14/00 A2976 RMK A01 T01430001  RH  038%=      5-min Rain = 0
KOD1 100256Z 02008KT 14/00 A2976 RMK A01 T01430000  RH  038%=      5-min Rain = 0
KOD1 100257Z 02008KT 14/M00 A2976 RMK A01 T01431001  RH  037%=      5-min Rain = 0
KOD1 100258Z 02007KT 14/M00 A2976 RMK A01 T01441001  RH  037%=      5-min Rain = 0
KOD1 100259Z 02006KT 14/M00 A2976 RMK A01 T01431002  RH  037%=      5-min Rain = 0
KOD1 100300Z 03006KT 14/M00 A2976 RMK A01 T01411003  RH  037%=      5-min Rain = 0
KOD1 100301Z 02006KT 14/M00 A2976 RMK A01 T01381003  RH  038%=      5-min Rain = 0
KOD1 100302Z 02007KT 14/M00 A2976 RMK A01 T01351002  RH  039%=      5-min Rain = 0
KOD1 100303Z 02007KT 13/M00 A2976 RMK A01 T01331002  RH  039%=      5-min Rain = 0
KOD1 100304Z 02007KT 13/M00 A2976 RMK A01 T01311002  RH  040%=      5-min Rain = 0
KOD1 100305Z 02007KT 13/M00 A2976 RMK A01 T01291002  RH  040%=      5-min Rain = 0
KOD1 100306Z 02007KT 13/M00 A2976 RMK A01 T01271002  RH  041%=      5-min Rain = 0
KOD1 100307Z 02006KT 13/M00 A2976 RMK A01 T01261002  RH  041%=      5-min Rain = 0
KOD1 100308Z 02006KT 13/M00 A2976 RMK A01 T01251002  RH  042%=      5-min Rain = 0
KOD1 100309Z 02006KT 12/M00 A2976 RMK A01 T01241002  RH  042%=      5-min Rain = 0
KOD1 100310Z 02006KT 12/M00 A2976 RMK A01 T01221002  RH  042%=      5-min Rain = 0
KOD1 100311Z 02006KT 12/M00 A2976 RMK A01 T01221001  RH  043%=      5-min Rain = 0
KOD1 100312Z 02006KT 12/M00 A2976 RMK A01 T01211001  RH  043%=      5-min Rain = 0
KOD1 100313Z 02006KT 12/M00 A2976 RMK A01 T01211001  RH  043%=      5-min Rain = 0
KOD1 100314Z 02007KT 12/M00 A2976 RMK A01 T01201001  RH  043%=      5-min Rain = 0
KOD1 100315Z 02007KT 12/M00 A2976 RMK A01 T01191001  RH  044%=      5-min Rain = 0
KOD1 100316Z 02007KT 12/M00 A2976 RMK A01 T01191001  RH  044%=      5-min Rain = 0
KOD1 100317Z 02007KT 12/M00 A2976 RMK A01 T01181001  RH  044%=      5-min Rain = 0
KOD1 100318Z 02008KT 12/M00 A2976 RMK A01 T01171001  RH  044%=      5-min Rain = 0
KOD1 100319Z 03008KT 12/00 A2976 RMK A01 T01170001  RH  045%=      5-min Rain = 0
KOD1 100320Z 03008KT 12/00 A2976 RMK A01 T01190002  RH  044%=      5-min Rain = 0
KOD1 100321Z 02008KT 12/00 A2976 RMK A01 T01220002  RH  044%=      5-min Rain = 0
KOD1 100322Z 02008KT 12/00 A2976 RMK A01 T01240002  RH  043%=      5-min Rain = 0
KOD1 100323Z 03008KT 13/00 A2976 RMK A01 T01250001  RH  043%=      5-min Rain = 0
KOD1 100324Z 02008KT 13/00 A2976 RMK A01 T01260002  RH  042%=      5-min Rain = 0
KOD1 100325Z 02008KT 13/00 A2976 RMK A01 T01260002  RH  042%=      5-min Rain = 0
KOD1 100326Z 03007KT 13/00 A2976 RMK A01 T01260001  RH  042%=      5-min Rain = 0
KOD1 100327Z 03007KT 13/00 A2976 RMK A01 T01250001  RH  043%=      5-min Rain = 0
KOD1 100328Z 02007KT 12/00 A2976 RMK A01 T01240001  RH  043%=      5-min Rain = 0
KOD1 100329Z 03007KT 12/00 A2976 RMK A01 T01220001  RH  043%=      5-min Rain = 0
KOD1 100330Z 03007KT 12/00 A2976 RMK A01 T01210001  RH  044%=      5-min Rain = 0
KOD1 100331Z 03006KT 12/00 A2976 RMK A01 T01190001  RH  044%=      5-min Rain = 0
KOD1 100332Z 03007KT 12/00 A2976 RMK A01 T01170001  RH  045%=      5-min Rain = 0
KOD1 100333Z 03007KT 12/00 A2976 RMK A01 T01160002  RH  045%=      5-min Rain = 0
KOD1 100334Z 03007KT 12/00 A2976 RMK A01 T01150003  RH  046%=      5-min Rain = 0
KOD1 100335Z 03008KT 12/00 A2975 RMK A01 T01150004  RH  046%=      5-min Rain = 0
KOD1 100336Z 03008KT 12/01 A2975 RMK A01 T01160005  RH  046%=      5-min Rain = 0
KOD1 100337Z 03008KT 12/01 A2975 RMK A01 T01170006  RH  046%=      5-min Rain = 0
KOD1 100338Z 03008KT 12/01 A2975 RMK A01 T01190006  RH  046%=      5-min Rain = 0
KOD1 100339Z 03008KT 12/01 A2975 RMK A01 T01210007  RH  045%=      5-min Rain = 0
KOD1 100340Z 03008KT 12/01 A2975 RMK A01 T01230007  RH  045%=      5-min Rain = 0
KOD1 100341Z 03008KT 12/01 A2975 RMK A01 T01240006  RH  045%=      5-min Rain = 0
KOD1 100342Z 03008KT 12/01 A2975 RMK A01 T01230006  RH  045%=      5-min Rain = 0
KOD1 100343Z 03008KT 12/01 A2975 RMK A01 T01230007  RH  045%=      5-min Rain = 0
KOD1 100344Z 03008KT 12/01 A2975 RMK A01 T01230008  RH  045%=      5-min Rain = 0
KOD1 100345Z 03008KT 12/01 A2975 RMK A01 T01230008  RH  045%=      5-min Rain = 0
KOD1 100346Z 03008KT 12/01 A2975 RMK A01 T01230008  RH  045%=      5-min Rain = 0
KOD1 100347Z 03008KT 12/01 A2975 RMK A01 T01230009  RH  045%=      5-min Rain = 0
KOD1 100348Z 03008KT 12/01 A2975 RMK A01 T01240009  RH  045%=      5-min Rain = 0
KOD1 100349Z 03008KT 12/01 A2975 RMK A01 T01240009  RH  045%=      5-min Rain = 0
KOD1 100350Z 03008KT 12/01 A2975 RMK A01 T01240010  RH  046%=      5-min Rain = 0
KOD1 100351Z 03008KT 12/01 A2975 RMK A01 T01240011  RH  046%=      5-min Rain = 0
KOD1 100352Z 03008KT 13/01 A2975 RMK A01 T01250011  RH  046%=      5-min Rain = 0
KOD1 100353Z 03008KT 13/01 A2975 RMK A01 T01260011  RH  045%=      5-min Rain = 0
KOD1 100354Z 03009KT 13/01 A2975 RMK A01 T01270012  RH  045%=      5-min Rain = 0
KOD1 100355Z 03008KT 13/01 A2975 RMK A01 T01290012  RH  045%=      5-min Rain = 0
KOD1 100356Z 03008KT 13/01 A2975 RMK A01 T01300012  RH  044%=      5-min Rain = 0
KOD1 100357Z 03009KT 13/01 A2975 RMK A01 T01320012  RH  044%=      5-min Rain = 0
KOD1 100358Z 03008KT 13/01 A2975 RMK A01 T01340012  RH  044%=      5-min Rain = 0
KOD1 100359Z 03008KT 14/01 A2975 RMK A01 T01350012  RH  043%=      5-min Rain = 0
KOD1 100400Z 02007KT 14/01 A2975 RMK A01 T01360012  RH  043%=      5-min Rain = 0
KOD1 100401Z 02007KT 14/01 A2975 RMK A01 T01360012  RH  043%=      5-min Rain = 0
KOD1 100402Z 02007KT 14/01 A2975 RMK A01 T01360012  RH  043%=      5-min Rain = 0
KOD1 100403Z 03007KT 14/01 A2976 RMK A01 T01360013  RH  043%=      5-min Rain = 0
KOD1 100404Z 02007KT 14/01 A2976 RMK A01 T01360013  RH  043%=      5-min Rain = 0
KOD1 100405Z 02007KT 14/01 A2976 RMK A01 T01350013  RH  043%=      5-min Rain = 0
KOD1 100406Z 02007KT 14/01 A2976 RMK A01 T01350013  RH  043%=      5-min Rain = 0
KOD1 100407Z 02006KT 14/01 A2976 RMK A01 T01350013  RH  043%=      5-min Rain = 0
KOD1 100408Z 02006KT 14/01 A2976 RMK A01 T01350013  RH  043%=      5-min Rain = 0
KOD1 100409Z 02005KT 13/01 A2976 RMK A01 T01340013  RH  044%=      5-min Rain = 0
KOD1 100410Z 01004KT 13/01 A2976 RMK A01 T01340012  RH  043%=      5-min Rain = 0
KOD1 100411Z 01003KT 13/01 A2976 RMK A01 T01330011  RH  043%=      5-min Rain = 0
KOD1 100412Z 01002KT 13/01 A2976 RMK A01 T01320011  RH  044%=      5-min Rain = 0
KOD1 100413Z 34001KT 13/01 A2976 RMK A01 T01310012  RH  044%=      5-min Rain = 0
KOD1 100414Z 01002KT 13/01 A2975 RMK A01 T01300012  RH  045%=      5-min Rain = 0
KOD1 100415Z 01002KT 13/01 A2975 RMK A01 T01300013  RH  045%=      5-min Rain = 0
KOD1 100416Z 02002KT 13/01 A2975 RMK A01 T01290013  RH  045%=      5-min Rain = 0
KOD1 100417Z 03003KT 13/01 A2975 RMK A01 T01280013  RH  045%=      5-min Rain = 0
KOD1 100418Z 03004KT 13/01 A2975 RMK A01 T01270014  RH  046%=      5-min Rain = 0
KOD1 100419Z 03005KT 13/01 A2975 RMK A01 T01270013  RH  046%=      5-min Rain = 0
KOD1 100420Z 04006KT 13/01 A2975 RMK A01 T01250011  RH  046%=      5-min Rain = 0
KOD1 100421Z 04007KT 12/01 A2976 RMK A01 T01220012  RH  047%=      5-min Rain = 0
KOD1 100422Z 04009KT 12/01 A2976 RMK A01 T01200013  RH  048%=      5-min Rain = 0
KOD1 100423Z 04009KT 12/02 A2976 RMK A01 T01170015  RH  050%=      5-min Rain = 0
KOD1 100424Z 04009KT 12/02 A2976 RMK A01 T01160018  RH  051%=      5-min Rain = 0
KOD1 100425Z 04010KT 12/02 A2975 RMK A01 T01170019  RH  051%=      5-min Rain = 0
KOD1 100426Z 04010KT 12/02 A2975 RMK A01 T01200019  RH  050%=      5-min Rain = 0
KOD1 100427Z 04009KT 12/02 A2975 RMK A01 T01230019  RH  049%=      5-min Rain = 0
KOD1 100428Z 04009KT 13/02 A2975 RMK A01 T01250019  RH  048%=      5-min Rain = 0
KOD1 100429Z 05009KT 13/02 A2975 RMK A01 T01270019  RH  048%=      5-min Rain = 0
KOD1 100430Z 05009KT 13/02 A2975 RMK A01 T01280019  RH  047%=      5-min Rain = 0
KOD1 100431Z 05009KT 13/02 A2975 RMK A01 T01290019  RH  047%=      5-min Rain = 0
KOD1 100432Z 05009KT 13/02 A2975 RMK A01 T01290019  RH  047%=      5-min Rain = 0
KOD1 100433Z 05009KT 13/02 A2976 RMK A01 T01300019  RH  047%=      5-min Rain = 0
KOD1 100434Z 05008KT 13/02 A2976 RMK A01 T01310018  RH  046%=      5-min Rain = 0
KOD1 100435Z 05008KT 13/02 A2976 RMK A01 T01310018  RH  046%=      5-min Rain = 0
KOD1 100436Z 05008KT 13/02 A2976 RMK A01 T01310018  RH  046%=      5-min Rain = 0
KOD1 100437Z 05008KT 13/02 A2976 RMK A01 T01300018  RH  047%=      5-min Rain = 0
KOD1 100438Z 05008KT 13/02 A2976 RMK A01 T01290018  RH  047%=      5-min Rain = 0
KOD1 100439Z 05008KT 13/02 A2976 RMK A01 T01290018  RH  047%=      5-min Rain = 0
KOD1 100440Z 05007KT 13/02 A2976 RMK A01 T01280018  RH  047%=      5-min Rain = 0
KOD1 100441Z 05007KT 13/02 A2976 RMK A01 T01270017  RH  047%=      5-min Rain = 0
KOD1 100442Z 05007KT 13/02 A2976 RMK A01 T01270017  RH  047%=      5-min Rain = 0
KOD1 100443Z 05007KT 13/02 A2976 RMK A01 T01260017  RH  047%=      5-min Rain = 0
KOD1 100444Z 05007KT 13/02 A2976 RMK A01 T01260017  RH  047%=      5-min Rain = 0
KOD1 100445Z 05007KT 13/02 A2976 RMK A01 T01250017  RH  048%=      5-min Rain = 0
KOD1 100446Z 06007KT 12/02 A2976 RMK A01 T01240017  RH  048%=      5-min Rain = 0
KOD1 100447Z 06007KT 12/02 A2976 RMK A01 T01220017  RH  049%=      5-min Rain = 0
KOD1 100448Z 06007KT 12/02 A2976 RMK A01 T01210017  RH  049%=      5-min Rain = 0
KOD1 100449Z 06007KT 12/02 A2976 RMK A01 T01210017  RH  049%=      5-min Rain = 0
KOD1 100450Z 06007KT 12/02 A2976 RMK A01 T01200017  RH  050%=      5-min Rain = 0
KOD1 100451Z 06007KT 12/02 A2976 RMK A01 T01190017  RH  050%=      5-min Rain = 0
KOD1 100452Z 06007KT 12/02 A2976 RMK A01 T01190017  RH  050%=      5-min Rain = 0
KOD1 100453Z 06008KT 12/02 A2976 RMK A01 T01190017  RH  050%=      5-min Rain = 0
KOD1 100454Z 06008KT 12/02 A2976 RMK A01 T01190018  RH  050%=      5-min Rain = 0
KOD1 100455Z 06008KT 12/02 A2976 RMK A01 T01180018  RH  050%=      5-min Rain = 0
KOD1 100456Z 06008KT 12/02 A2976 RMK A01 T01180019  RH  050%=      5-min Rain = 0
KOD1 100457Z 06008KT 12/02 A2976 RMK A01 T01180019  RH  051%=      5-min Rain = 0
KOD1 100458Z 06008KT 12/02 A2976 RMK A01 T01190020  RH  051%=      5-min Rain = 0
KOD1 100459Z 06008KT 12/02 A2976 RMK A01 T01190021  RH  051%=      5-min Rain = 0
KOD1 100500Z 07008KT 12/02 A2976 RMK A01 T01210021  RH  050%=      5-min Rain = 0
KOD1 100501Z 07008KT 12/02 A2976 RMK A01 T01230021  RH  050%=      5-min Rain = 0
KOD1 100502Z 06008KT 13/02 A2976 RMK A01 T01250021  RH  049%=      5-min Rain = 0
KOD1 100503Z 06008KT 13/02 A2976 RMK A01 T01270022  RH  049%=      5-min Rain = 0
KOD1 100504Z 06007KT 13/02 A2976 RMK A01 T01290022  RH  048%=      5-min Rain = 0
KOD1 100505Z 07007KT 13/02 A2976 RMK A01 T01310022  RH  047%=      5-min Rain = 0
KOD1 100506Z 06008KT 13/02 A2976 RMK A01 T01320022  RH  047%=      5-min Rain = 0
KOD1 100507Z 06007KT 13/02 A2975 RMK A01 T01330022  RH  047%=      5-min Rain = 0
KOD1 100508Z 06008KT 13/02 A2975 RMK A01 T01340022  RH  047%=      5-min Rain = 0
KOD1 100509Z 06008KT 13/02 A2975 RMK A01 T01340021  RH  047%=      5-min Rain = 0
KOD1 100510Z 06008KT 13/02 A2975 RMK A01 T01330021  RH  047%=      5-min Rain = 0
KOD1 100511Z 06009KT 13/02 A2975 RMK A01 T01310022  RH  047%=      5-min Rain = 0
KOD1 100512Z 06009KT 13/02 A2975 RMK A01 T01300022  RH  048%=      5-min Rain = 0
KOD1 100513Z 06009KT 13/02 A2975 RMK A01 T01290022  RH  048%=      5-min Rain = 0
KOD1 100514Z 07008KT 13/02 A2975 RMK A01 T01300022  RH  048%=      5-min Rain = 0
KOD1 100515Z 07008KT 13/02 A2975 RMK A01 T01310022  RH  048%=      5-min Rain = 0
KOD1 100516Z 07007KT 13/02 A2975 RMK A01 T01340022  RH  047%=      5-min Rain = 0
KOD1 100517Z 07007KT 14/02 A2975 RMK A01 T01360022  RH  046%=      5-min Rain = 0
KOD1 100518Z 07007KT 14/02 A2975 RMK A01 T01380022  RH  045%=      5-min Rain = 0
KOD1 100519Z 07008KT 14/02 A2975 RMK A01 T01390022  RH  045%=      5-min Rain = 0
KOD1 100520Z 06008KT 14/02 A2975 RMK A01 T01410021  RH  044%=      5-min Rain = 0
KOD1 100521Z 06008KT 14/02 A2975 RMK A01 T01410021  RH  044%=      5-min Rain = 0
KOD1 100522Z 06007KT 14/02 A2975 RMK A01 T01410021  RH  044%=      5-min Rain = 0
KOD1 100523Z 06007KT 14/02 A2975 RMK A01 T01400021  RH  044%=      5-min Rain = 0
KOD1 100524Z 06008KT 14/02 A2975 RMK A01 T01390022  RH  045%=      5-min Rain = 0
KOD1 100525Z 06009KT 14/02 A2975 RMK A01 T01380022  RH  045%=      5-min Rain = 0
KOD1 100526Z 06009KT 14/02 A2975 RMK A01 T01360022  RH  046%=      5-min Rain = 0
KOD1 100527Z 06009KT 13/02 A2975 RMK A01 T01340022  RH  046%=      5-min Rain = 0
KOD1 100528Z 06009KT 13/02 A2975 RMK A01 T01320022  RH  047%=      5-min Rain = 0
KOD1 100529Z 06009KT 13/02 A2975 RMK A01 T01310022  RH  048%=      5-min Rain = 0
KOD1 100530Z 07009KT 13/02 A2975 RMK A01 T01310023  RH  048%=      5-min Rain = 0
KOD1 100531Z 06009KT 13/02 A2975 RMK A01 T01320023  RH  047%=      5-min Rain = 0
KOD1 100532Z 06008KT 13/02 A2975 RMK A01 T01330023  RH  047%=      5-min Rain = 0
KOD1 100533Z 06008KT 13/02 A2975 RMK A01 T01340023  RH  047%=      5-min Rain = 0
KOD1 100534Z 06008KT 13/02 A2975 RMK A01 T01340023  RH  047%=      5-min Rain = 0
KOD1 100535Z 06008KT 13/02 A2975 RMK A01 T01330023  RH  047%=      5-min Rain = 0
KOD1 100536Z 06008KT 13/02 A2975 RMK A01 T01320023  RH  047%=      5-min Rain = 0
KOD1 100537Z 06008KT 13/02 A2975 RMK A01 T01310023  RH  048%=      5-min Rain = 0
KOD1 100538Z 06008KT 13/02 A2975 RMK A01 T01300023  RH  048%=      5-min Rain = 0
KOD1 100539Z 06008KT 13/02 A2975 RMK A01 T01300023  RH  048%=      5-min Rain = 0
KOD1 100540Z 06008KT 13/02 A2975 RMK A01 T01290023  RH  049%=      5-min Rain = 0
KOD1 100541Z 06008KT 13/02 A2975 RMK A01 T01290024  RH  049%=      5-min Rain = 0
KOD1 100542Z 06008KT 13/02 A2975 RMK A01 T01290024  RH  049%=      5-min Rain = 0
KOD1 100543Z 07007KT 13/02 A2975 RMK A01 T01300024  RH  049%=      5-min Rain = 0
KOD1 100544Z 07007KT 13/02 A2975 RMK A01 T01310024  RH  048%=      5-min Rain = 0
KOD1 100545Z 06007KT 13/02 A2975 RMK A01 T01320024  RH  048%=      5-min Rain = 0
KOD1 100546Z 06007KT 13/03 A2975 RMK A01 T01330025  RH  048%=      5-min Rain = 0
KOD1 100547Z 06006KT 14/02 A2975 RMK A01 T01350024  RH  047%=      5-min Rain = 0
KOD1 100548Z 07006KT 13/02 A2975 RMK A01 T01340024  RH  047%=      5-min Rain = 0
KOD1 100549Z 07007KT 13/02 A2975 RMK A01 T01330024  RH  047%=      5-min Rain = 0
KOD1 100550Z 07006KT 13/02 A2975 RMK A01 T01330024  RH  048%=      5-min Rain = 0
KOD1 100551Z 07007KT 13/03 A2975 RMK A01 T01340025  RH  048%=      5-min Rain = 0
KOD1 100552Z 06007KT 14/03 A2975 RMK A01 T01350025  RH  047%=      5-min Rain = 0
KOD1 100553Z 06007KT 14/03 A2975 RMK A01 T01350025  RH  047%=      5-min Rain = 0
KOD1 100554Z 06007KT 14/03 A2975 RMK A01 T01350025  RH  047%=      5-min Rain = 0
KOD1 100555Z 06007KT 13/03 A2975 RMK A01 T01330025  RH  048%=      5-min Rain = 0
KOD1 100556Z 07006KT 13/02 A2975 RMK A01 T01310024  RH  048%=      5-min Rain = 0
KOD1 100557Z 06006KT 13/02 A2975 RMK A01 T01290024  RH  049%=      5-min Rain = 0
KOD1 100558Z 06006KT 13/02 A2975 RMK A01 T01270024  RH  050%=      5-min Rain = 0
KOD1 100559Z 06007KT 13/02 A2975 RMK A01 T01250024  RH  050%=      5-min Rain = 0

Page generated in 0.085 seconds.